GFSGBSN_sfc_rhum_000.txt.gz
RH
84 84 83 83 83 84 80 82 84 87 88 88 87 87 86 86 86 88 89 91 89 86 85 86 86 88 60 22 16 12 41 38 15 10 9 10 10 12 11 10 11 12 12 12 12 12 12
84 84 84 84 84 82 81 83 85 89 88 88 88 87 86 87 88 88 90 91 91 88 87 86 86 92 44 19 11 11 11 11 10 10 10 11 12 12 13 14 15 13 13 13 12 12 11
83 84 86 87 87 86 85 88 88 88 89 88 88 88 88 86 86 87 88 89 90 90 88 87 86 52 21 16 10 10 11 12 10 11 11 10 12 13 15 18 14 13 16 14 14 10 9
82 82 83 86 86 87 87 87 86 86 87 87 87 89 89 87 86 86 87 88 88 89 89 89 88 47 19 12 11 10 10 11 11 10 10 10 12 13 16 14 16 15 14 11 9 10 10
81 83 83 85 87 87 88 88 87 86 85 88 89 89 89 88 86 85 85 87 88 89 89 86 59 42 18 22 13 11 11 13 12 12 12 10 11 13 16 20 16 12 14 13 13 8 9
79 82 84 85 87 87 88 88 88 87 88 89 90 89 87 87 85 79 84 84 83 78 64 35 20 17 14 16 13 12 11 13 14 14 14 13 14 16 13 16 22 20 18 16 16 12 13
79 78 83 85 87 88 90 88 88 88 88 89 90 89 86 84 84 84 68 33 23 26 16 18 15 15 13 12 12 10 10 12 13 14 16 12 19 19 16 17 15 14 16 16 15 12 14
83 81 81 84 87 89 90 89 90 89 89 89 90 89 85 82 83 77 59 30 34 35 21 14 13 13 12 12 14 12 10 14 15 16 12 13 22 16 14 14 15 13 16 19 16 15 18
80 79 80 85 87 89 89 89 90 90 90 90 90 89 85 82 80 69 34 34 31 35 32 16 14 14 14 13 15 14 13 14 15 14 14 15 20 14 14 15 19 16 23 24 23 19 15
78 76 81 86 88 90 91 91 90 89 90 91 91 90 88 83 49 31 35 33 40 47 39 19 16 16 13 12 17 13 11 15 17 17 14 16 15 16 16 17 19 23 19 23 25 26 28
76 75 83 87 89 92 92 92 92 91 90 90 92 89 88 81 44 29 38 36 42 55 70 22 16 12 12 15 14 15 12 15 19 17 16 24 18 16 18 20 19 24 23 26 24 27 26
76 77 84 88 90 91 92 92 92 92 91 90 91 90 84 41 51 40 38 47 53 82 73 24 16 18 18 16 16 14 15 14 15 17 14 14 14 16 19 18 19 21 24 23 22 27 51
77 81 85 88 90 92 92 92 92 93 93 90 90 90 58 40 48 43 54 53 58 69 24 22 22 18 19 20 19 18 20 25 27 37 32 19 18 17 20 24 20 25 33 58 76 70 60
88 86 85 88 90 92 92 92 92 92 93 91 90 92 65 45 44 55 53 52 62 30 25 21 20 20 23 22 22 20 21 24 25 28 29 33 40 22 22 26 32 30 34 69 73 65 55
92 89 86 87 90 92 92 92 92 92 92 91 92 55 48 60 55 58 46 78 51 28 23 23 21 23 25 23 22 22 26 27 29 30 40 45 34 22 24 24 27 32 43 32 57 90 74
88 90 87 88 92 93 93 92 92 92 92 90 48 39 47 55 56 61 73 53 28 23 22 22 28 24 28 26 26 26 28 27 30 30 30 36 52 30 26 26 27 31 29 53 67 91 68
87 91 89 90 94 94 93 92 92 92 90 88 62 42 51 46 58 43 72 39 26 21 23 29 28 27 28 30 31 29 30 30 29 30 30 36 48 47 37 32 35 33 41 45 37 54 75
87 90 93 93 94 94 93 93 92 93 87 71 59 59 48 50 48 43 39 27 47 25 24 28 29 31 34 34 38 34 34 35 31 31 38 42 53 72 50 31 24 28 35 35 79 68 64
88 89 93 95 94 94 93 93 92 93 91 55 37 38 44 53 82 90 33 31 28 27 30 30 35 34 33 37 52 39 38 37 32 33 48 44 62 70 45 35 32 38 32 34 44 81 78
90 90 92 95 94 94 94 93 92 93 93 61 38 88 58 42 34 37 37 36 39 35 33 31 33 33 36 40 36 47 38 36 38 38 67 53 51 66 74 58 44 53 41 38 44 70 60
92 93 95 96 95 94 93 93 93 92 92 66 35 49 44 72 57 39 36 33 37 42 35 32 36 36 38 66 55 44 37 37 36 61 41 48 76 56 50 45 46 50 48 41 42 43 56
96 98 98 97 95 94 94 94 94 92 92 51 58 49 37 38 35 36 50 36 35 35 33 36 39 34 37 49 47 53 43 46 48 38 48 56 89 85 84 58 50 56 52 47 42 38 36
96 97 97 96 96 95 90 95 96 94 86 40 38 37 45 68 51 62 51 34 32 33 41 32 36 42 72 47 43 42 44 44 45 51 61 63 95 100 89 64 76 91 63 49 42 36 37
95 96 97 96 95 95 98 98 95 96 91 58 53 46 75 86 72 47 35 33 35 34 44 38 38 68 42 36 42 51 53 47 44 42 40 70 99 100 100 100 96 47 32 34 41 36 34
96 95 96 96 96 96 98 99 91 92 93 63 50 52 68 100 61 46 42 40 38 40 43 40 36 48 47 52 92 100 84 100 90 41 38 41 99 100 100 89 67 54 41 48 50 49 35
97 96 95 95 96 96 97 96 94 93 93 73 55 58 56 90 91 43 44 41 64 69 66 55 41 40 50 96 100 100 86 71 60 45 43 63 98 100 100 97 92 64 36 33 36 64 58
97 97 96 96 96 97 97 96 95 94 93 78 66 68 59 98 58 50 55 58 45 59 66 58 54 87 53 100 100 100 87 49 66 97 95 99 99 100 95 97 77 47 36 41 80 91 74
98 98 98 97 97 97 97 96 96 96 94 84 77 70 79 79 63 54 50 54 51 55 85 58 68 76 96 100 100 93 100 84 74 56 71 72 93 97 100 100 93 37 44 89 68 65 66
99 98 99 98 98 98 97 97 96 96 94 95 76 80 68 91 67 69 62 56 48 46 61 70 72 61 80 95 99 100 100 100 100 92 47 77 70 76 63 69 49 43 49 50 54 68 70

GFSGBSN_sfc_rhum_006.txt.gz
RH
86 85 85 82 82 83 81 80 86 90 90 90 91 91 89 86 87 91 92 93 93 91 88 85 88 88 59 34 25 16 49 34 16 17 18 18 21 24 27 24 21 21 20 19 17 17 19
88 89 88 87 85 84 82 84 87 89 90 90 90 90 90 90 91 92 92 93 92 91 89 85 87 90 43 32 16 15 16 16 16 17 17 17 21 21 26 23 25 26 22 22 19 19 21
84 88 88 89 89 89 88 90 89 89 88 89 89 89 88 88 89 90 91 92 92 90 89 85 85 58 57 24 18 20 17 18 17 20 19 17 21 20 24 28 24 24 25 22 21 21 20
87 86 87 89 90 90 91 91 90 88 88 89 89 88 88 87 86 87 89 89 89 88 88 87 85 65 34 18 20 16 17 19 18 18 19 15 17 22 30 26 27 28 28 29 21 21 17
86 85 86 89 90 92 92 92 92 88 88 89 88 88 87 87 85 84 82 84 87 88 92 90 68 61 33 23 18 16 18 19 19 21 22 16 24 27 24 32 31 29 30 29 23 17 18
83 83 86 90 91 91 92 92 92 91 90 90 88 87 86 86 86 86 84 82 87 88 82 63 44 44 24 24 19 17 15 15 20 24 23 29 30 31 30 31 37 33 29 25 33 23 29
80 80 86 90 91 91 91 91 92 92 91 91 90 87 86 85 86 84 62 54 50 37 42 27 26 25 20 16 19 16 16 18 22 30 33 25 31 34 28 29 26 29 32 37 31 27 32
78 79 87 89 92 91 90 91 93 93 91 91 91 89 86 86 83 79 73 55 58 55 46 23 21 20 18 19 23 18 17 22 27 28 23 30 35 27 21 26 27 27 39 39 33 29 36
76 80 87 90 91 91 90 91 92 93 92 91 90 90 90 87 84 69 58 64 63 65 59 24 23 23 19 20 24 21 21 25 31 27 26 32 28 22 23 29 29 32 41 41 39 38 38
74 80 86 90 92 92 92 91 91 92 93 91 90 91 91 87 52 66 64 56 63 71 63 31 28 23 20 20 29 18 20 26 26 30 27 31 23 21 30 31 32 37 30 36 39 46 51
75 80 86 89 92 92 92 92 92 92 94 92 91 91 90 83 73 61 59 66 77 65 79 32 24 18 18 22 22 21 20 26 30 27 28 29 26 27 30 30 32 33 34 42 45 52 54
76 82 85 90 92 92 93 92 92 92 93 92 91 92 90 73 76 70 74 84 72 88 78 36 25 27 28 26 22 24 31 29 34 37 35 26 24 27 31 30 36 34 42 49 52 53 69
81 84 85 90 92 92 93 92 93 92 92 93 92 89 71 72 67 78 88 74 83 76 38 34 34 28 32 30 28 32 39 43 50 49 57 43 33 30 33 39 38 43 60 83 74 80 76
88 87 87 90 93 92 93 93 92 92 92 93 92 86 84 79 87 83 78 79 68 52 39 30 31 31 37 32 32 38 40 48 44 49 63 68 65 43 32 42 47 48 58 86 83 88 78
91 88 87 90 94 92 93 93 92 92 92 93 88 88 82 77 83 91 74 87 70 48 35 34 33 38 40 34 33 40 49 50 46 48 60 76 59 43 37 36 41 48 66 52 69 93 89
91 91 88 90 94 93 93 93 92 91 89 91 76 84 72 76 82 80 87 62 44 36 36 40 47 42 49 45 44 44 49 48 47 47 51 60 74 53 47 43 44 46 45 69 85 88 95
89 92 92 94 95 94 93 93 94 93 89 86 91 67 60 75 78 76 81 62 38 31 36 42 49 52 50 55 54 52 58 51 47 46 52 60 68 64 53 55 60 54 70 62 63 84 97
89 91 95 96 96 94 93 93 94 95 90 84 88 64 53 71 67 94 62 42 46 36 40 44 48 50 54 54 59 59 60 54 48 52 63 61 74 87 61 50 47 53 61 64 91 85 91
88 91 94 95 97 95 93 93 94 95 95 91 82 79 70 66 82 92 52 46 48 44 45 47 51 49 50 58 66 59 58 51 45 55 60 59 76 87 62 51 57 63 54 62 73 86 88
91 91 92 96 97 95 93 94 94 95 94 93 74 88 85 82 79 57 53 56 53 47 48 44 47 47 53 62 54 60 58 56 57 56 64 62 72 74 82 65 72 76 61 57 72 95 84
91 90 92 97 97 95 95 96 99 95 94 88 82 75 74 87 79 60 62 58 56 59 50 45 51 55 58 70 65 77 69 66 60 70 62 65 80 76 71 66 68 67 67 67 75 71 89
95 95 96 98 96 95 98 98 98 94 94 78 78 84 81 82 66 57 74 56 55 47 52 55 60 65 62 73 69 80 73 76 74 66 76 74 88 86 83 75 78 84 72 72 71 68 67
96 97 98 97 96 95 98 98 98 95 92 87 91 83 77 87 78 80 81 57 56 53 59 47 52 61 72 70 64 64 65 65 66 74 82 80 91 98 79 91 95 94 80 71 61 58 62
96 97 97 97 95 96 98 98 97 96 94 96 93 87 86 89 92 76 62 55 58 58 62 56 54 65 61 62 65 65 64 69 82 76 74 89 96 97 98 98 99 64 55 54 62 60 58
96 96 97 97 96 96 96 98 96 96 97 94 96 90 96 97 97 82 66 64 61 64 67 61 63 60 70 78 85 81 82 69 65 71 86 79 98 99 98 97 80 69 60 68 73 70 72
97 96 96 96 96 96 96 95 94 94 96 95 97 94 90 94 88 70 70 70 84 83 80 75 68 68 83 100 94 96 89 79 76 65 82 90 94 90 96 99 91 67 54 59 65 86 74
97 97 97 96 97 96 97 96 94 94 94 94 94 92 93 99 88 74 80 79 73 85 85 87 80 78 83 100 99 93 91 81 90 91 83 98 98 97 100 99 88 64 55 63 81 70 77
97 98 98 98 97 97 96 97 96 95 94 93 95 94 93 98 92 80 72 75 81 85 91 78 81 89 100 100 99 98 94 90 97 77 79 76 89 96 97 99 94 62 61 79 73 80 68
98 98 98 98 98 98 98 98 97 95 94 95 94 97 96 96 84 90 86 83 75 68 85 86 82 82 95 99 100 99 100 100 99 91 74 85 78 84 83 83 68 65 60 66 67 63 71

GFSGBSN_sfc_rhum_009.txt.gz
RH
86 85 84 84 84 85 82 82 86 89 90 90 91 91 90 88 86 90 94 93 92 91 91 87 86 90 62 29 26 17 52 35 19 20 18 20 22 27 28 26 24 22 22 21 20 20 22
87 88 88 88 87 86 84 85 86 90 89 88 89 90 91 90 91 92 92 92 93 92 91 87 87 90 43 29 18 18 19 18 18 20 19 17 23 26 27 29 27 28 25 23 22 22 24
84 88 88 90 91 90 90 92 89 89 88 88 88 88 88 89 88 89 90 91 92 91 89 86 86 58 46 26 19 21 18 21 21 22 21 20 23 20 29 30 26 25 26 25 26 25 23
86 85 86 90 91 92 93 93 90 88 88 88 88 88 88 88 88 87 87 88 90 90 88 86 83 62 34 21 22 17 19 20 19 21 24 22 21 25 28 29 28 26 27 28 21 27 21
85 84 87 90 91 92 93 94 92 89 88 89 88 86 86 87 86 86 88 91 90 89 88 84 58 52 34 26 20 19 17 17 17 21 23 19 21 29 27 28 31 31 33 31 25 25 27
81 82 88 90 92 92 93 94 93 91 90 90 87 86 85 87 85 85 89 91 90 91 70 53 45 37 22 23 20 17 17 18 21 23 25 25 32 30 32 32 39 37 34 31 34 27 34
78 81 88 90 92 92 92 92 94 92 90 89 88 87 87 87 85 86 85 75 51 34 40 31 28 27 21 17 19 17 18 20 23 23 30 31 32 34 32 32 29 31 37 45 36 30 37
76 81 87 90 92 92 90 91 94 93 91 90 88 89 88 86 82 80 63 59 59 51 38 30 24 23 21 21 22 19 17 23 26 29 27 34 35 29 26 28 29 35 41 40 38 33 42
74 82 87 90 91 90 90 91 93 93 93 91 90 90 91 86 79 65 62 67 70 65 41 27 24 24 23 20 26 23 21 28 29 28 30 36 31 23 28 33 32 36 42 42 41 41 44
73 81 87 91 91 91 92 92 92 93 93 91 90 92 91 80 62 72 63 64 71 61 54 33 26 24 20 24 26 21 20 29 26 31 31 34 24 28 32 33 37 42 34 40 42 50 53
71 80 86 90 91 92 93 93 92 92 93 92 90 91 89 73 66 59 66 75 82 57 70 33 26 20 22 24 25 24 29 26 35 36 30 34 26 31 32 33 38 40 41 47 52 56 62
72 81 86 90 92 92 93 93 92 92 93 92 90 90 87 75 71 74 81 85 69 84 74 36 27 29 29 28 28 31 35 33 39 40 39 41 28 31 35 35 39 37 50 53 57 57 68
78 83 86 90 92 93 93 94 92 92 92 92 92 89 73 79 58 83 88 68 78 74 40 36 35 30 35 32 34 39 44 48 56 43 61 51 45 40 36 41 41 47 64 79 69 79 76
86 86 87 90 93 94 94 94 93 92 93 93 92 82 90 84 91 86 72 72 64 53 46 33 33 33 36 32 38 45 46 55 49 55 70 72 60 50 41 45 49 53 61 84 74 89 82
90 88 87 91 94 94 94 93 93 92 92 93 84 92 79 76 86 87 66 84 65 52 40 39 37 41 45 42 40 45 55 56 56 53 63 82 62 49 48 49 46 54 70 58 79 95 92
90 90 89 92 95 94 94 93 94 92 92 86 84 76 67 82 86 68 85 66 47 39 40 45 47 50 53 52 50 50 55 53 51 57 56 66 79 56 50 48 48 47 49 73 88 89 93
88 90 92 95 96 95 93 94 94 93 92 87 92 54 56 86 73 70 79 64 40 33 40 48 53 54 57 59 58 60 62 54 51 52 54 62 70 60 53 55 64 62 74 69 70 87 96
88 90 95 97 96 94 93 93 95 94 93 88 78 62 56 70 68 91 61 45 52 46 45 46 52 53 59 58 64 63 63 57 51 56 61 66 75 86 63 52 54 56 67 68 89 85 92
89 90 93 96 97 95 94 94 95 96 94 86 80 78 70 57 82 89 56 53 53 46 50 50 54 52 58 65 68 62 62 54 47 56 62 62 78 84 56 49 53 66 66 70 80 88 89
92 91 93 96 98 95 95 98 98 97 95 91 69 83 82 81 79 57 56 59 54 53 50 48 52 53 57 63 58 66 66 63 63 58 72 62 74 71 83 59 67 73 71 70 74 94 88
93 92 91 96 98 95 99 98 98 96 96 81 80 73 79 86 80 68 64 60 58 59 51 52 60 64 61 73 71 82 73 68 63 70 66 67 79 80 74 69 71 70 74 72 81 80 91
94 92 94 97 97 97 98 99 98 94 93 80 81 83 83 88 72 58 75 60 59 57 56 60 65 68 64 73 67 81 76 80 76 70 79 80 87 88 87 80 81 86 78 80 79 82 82
96 96 97 100 97 98 98 98 98 94 88 87 95 87 74 88 76 81 82 60 59 58 60 53 58 66 74 70 70 68 67 66 67 77 80 81 93 98 86 93 96 82 80 83 76 64 66
96 97 98 98 97 98 98 98 96 95 94 93 96 80 85 89 91 75 67 59 61 62 65 59 58 65 61 64 64 63 64 65 76 76 77 94 96 97 96 94 94 60 60 57 65 62 64
94 96 98 98 97 99 97 98 96 95 96 97 97 84 92 96 97 85 70 64 67 66 69 63 69 64 70 71 83 78 80 64 68 90 92 84 96 98 98 97 81 64 58 72 72 65 66
96 95 96 97 97 97 97 97 96 95 96 96 98 91 85 92 87 71 70 74 85 84 82 80 74 78 80 97 89 87 82 78 79 69 86 93 93 92 97 98 97 70 53 58 72 93 77
97 97 97 96 96 97 97 98 95 95 96 95 97 92 89 95 85 79 83 79 76 87 86 89 84 83 84 100 99 96 92 83 91 86 83 98 98 98 99 98 89 67 59 63 90 79 71
96 97 98 98 97 97 96 97 97 94 96 93 96 96 92 98 92 83 75 78 85 86 91 80 83 91 99 99 98 98 95 91 95 80 84 79 88 96 98 99 95 63 66 78 72 76 75
96 97 98 98 98 98 97 97 97 95 92 90 96 98 96 93 80 94 88 82 68 68 82 88 81 82 94 99 100 99 97 100 93 91 78 88 77 85 79 83 68 61 66 66 70 78 82

GFSGBSN_sfc_rhum_012.txt.gz
RH
86 84 84 85 86 87 84 85 88 89 89 90 90 90 89 86 85 89 92 94 93 92 91 88 87 90 81 29 28 19 54 38 22 19 18 22 24 30 29 27 25 22 23 21 22 19 22
86 86 87 88 89 87 85 88 88 90 90 89 90 90 91 90 91 92 93 93 92 91 90 89 88 90 50 29 20 20 20 19 21 23 22 19 24 29 28 32 26 29 29 28 27 25 26
83 86 88 91 92 91 91 93 90 89 89 89 89 89 89 89 90 91 91 91 91 90 89 88 87 78 32 29 23 22 19 23 25 25 24 24 25 22 31 32 30 28 28 23 23 27 27
84 84 86 91 91 93 94 94 90 88 88 88 87 88 88 88 88 88 88 87 88 89 90 89 88 66 31 23 28 19 17 17 18 24 26 27 24 25 27 32 25 25 27 29 22 27 22
84 83 88 91 91 93 95 95 92 88 88 88 87 87 85 85 85 85 88 90 88 89 89 87 68 44 31 26 20 21 18 18 19 20 24 20 24 31 27 27 31 33 37 37 27 32 36
80 83 89 91 91 93 94 94 94 91 90 89 87 85 85 85 87 88 88 89 88 88 76 53 39 28 22 22 21 19 20 21 21 27 24 25 31 28 33 32 36 40 34 37 43 30 37
76 82 88 92 93 93 93 93 94 92 90 88 87 85 84 86 88 90 92 83 40 33 34 28 29 28 22 18 21 19 22 22 23 24 29 34 32 34 35 35 33 34 38 46 42 36 41
75 83 88 91 92 91 90 91 94 93 91 89 88 88 87 86 84 89 75 61 63 52 32 29 26 24 22 23 23 21 20 24 27 30 30 34 34 31 30 31 32 34 42 40 38 39 47
73 82 88 90 90 90 90 90 93 93 92 90 89 90 90 87 75 69 70 78 78 65 33 27 25 26 24 21 27 24 22 31 29 28 34 38 33 30 30 35 38 42 40 42 42 43 48
73 81 87 91 91 91 92 92 92 93 92 90 89 91 87 80 61 75 66 73 80 50 52 32 26 24 21 25 27 25 30 29 30 31 34 35 27 31 37 36 41 48 36 42 46 56 54
73 80 87 91 91 93 94 94 93 92 92 90 90 90 87 64 66 66 69 83 82 48 57 31 25 22 24 24 28 31 34 27 41 41 35 35 32 37 40 40 41 43 48 55 55 61 64
73 81 87 91 92 94 94 94 94 93 93 90 89 90 82 68 72 79 86 81 65 76 63 38 29 30 29 30 32 34 39 36 42 42 45 49 34 36 40 38 45 42 55 51 60 61 69
76 84 87 90 93 94 93 94 93 94 93 90 89 87 80 79 57 86 86 67 72 74 43 38 36 32 34 36 40 42 48 54 59 41 66 53 49 47 41 46 45 50 61 70 68 78 76
84 86 88 90 93 94 93 94 94 94 93 89 86 86 89 89 92 86 68 70 60 55 48 39 35 38 39 39 46 49 52 59 53 58 76 75 56 53 44 50 54 58 64 82 66 90 85
90 88 88 91 94 94 93 94 94 94 94 88 87 86 77 81 90 77 65 82 66 53 43 41 41 45 47 48 46 51 61 61 59 60 66 85 64 53 53 55 51 59 73 63 82 97 92
89 91 91 94 95 95 93 94 94 94 93 89 89 67 74 88 87 63 84 69 49 46 43 47 50 53 55 56 54 54 61 56 56 61 60 70 78 59 52 52 49 52 53 72 88 93 91
88 90 92 96 96 94 94 93 94 94 95 90 82 53 58 90 68 66 79 64 43 44 45 50 55 58 60 62 59 64 64 56 54 58 56 64 69 55 55 58 67 66 76 74 74 88 96
87 90 93 96 97 94 94 95 96 95 94 83 68 58 63 74 64 88 63 50 55 51 48 51 54 56 61 64 67 66 65 60 52 60 64 70 76 83 59 55 63 66 70 69 87 80 93
90 90 92 95 98 95 95 98 99 98 94 81 78 74 69 61 80 88 60 57 55 50 54 52 56 57 60 68 69 64 63 64 60 60 68 66 78 80 50 51 55 69 72 74 82 88 85
91 91 92 94 97 96 98 98 99 96 95 80 69 84 81 85 79 58 59 60 58 54 53 61 59 55 60 65 66 74 73 65 66 66 75 66 76 68 78 59 63 78 76 75 79 93 83
91 92 93 94 98 98 98 99 97 94 96 76 79 80 80 85 82 72 67 59 60 60 53 57 61 62 61 74 74 82 75 68 63 70 74 69 80 81 75 70 73 74 79 78 88 83 90
93 93 93 95 99 98 99 99 99 94 93 80 82 82 87 90 76 61 75 62 65 61 57 64 64 69 67 70 64 77 78 80 74 75 81 82 86 91 90 88 90 95 85 84 86 87 88
95 94 94 97 100 98 99 99 98 95 86 88 96 86 76 91 76 80 80 61 58 58 61 57 62 65 72 70 71 74 68 69 79 79 78 82 94 97 89 93 91 77 66 82 79 75 75
96 96 97 99 99 98 99 99 98 95 93 91 96 79 82 90 91 80 70 62 62 64 63 62 60 66 61 67 63 62 60 59 74 81 80 98 96 97 97 89 93 58 62 57 69 65 63
95 97 97 98 98 97 98 98 95 94 96 97 97 80 88 98 96 85 69 68 69 68 73 68 78 77 67 69 86 80 80 66 77 95 94 86 97 98 98 89 82 61 56 71 76 69 67
94 96 97 98 98 98 98 97 96 95 95 97 99 91 82 92 86 68 72 74 84 84 83 85 84 81 75 94 88 86 81 75 76 73 88 93 93 94 98 97 98 70 58 61 78 89 77
95 95 96 97 97 98 98 98 96 95 97 96 99 93 84 92 84 79 82 80 77 86 85 91 85 85 86 99 98 94 90 84 89 84 83 98 98 99 99 98 90 68 62 65 87 77 73
97 97 98 98 97 97 97 98 96 95 94 94 99 98 90 96 91 86 77 81 86 86 90 83 86 92 98 99 99 98 96 91 92 79 82 75 84 95 98 99 95 65 70 75 66 77 73
96 97 98 99 99 98 97 98 98 96 95 90 97 98 96 92 80 96 91 86 72 68 81 90 82 86 95 98 99 99 99 99 91 91 82 88 78 83 79 85 69 58 65 64 71 79 85

GFSGBSN_sfc_rhum_015.txt.gz
RH
85 86 83 85 87 88 85 86 90 91 90 89 90 90 89 83 84 87 91 93 93 91 91 89 88 89 68 27 22 16 56 36 18 19 18 20 22 23 22 20 19 18 16 17 15 16 15
86 86 86 88 89 88 87 89 90 91 90 89 89 90 91 91 90 92 94 94 92 92 91 89 89 90 38 28 17 19 19 18 17 18 18 18 19 21 25 22 23 21 20 20 19 17 18
84 85 88 91 92 91 92 94 91 90 90 88 88 89 90 91 92 92 92 91 91 91 90 88 87 74 28 28 19 20 16 20 17 19 20 17 19 19 24 25 25 21 18 19 20 20 17
84 84 86 92 92 93 95 95 91 88 89 87 87 88 88 89 89 89 90 90 89 88 88 88 88 63 31 21 24 17 15 15 16 18 21 21 22 24 23 23 21 20 20 22 19 22 20
85 83 88 91 92 93 95 95 93 89 88 87 86 85 86 86 87 88 88 89 87 87 88 88 61 39 30 23 18 18 16 17 18 20 23 19 23 26 23 21 21 23 20 24 22 26 26
80 83 89 92 93 93 94 94 93 91 89 87 85 86 85 84 85 89 89 87 86 83 76 60 32 30 21 20 19 18 17 21 22 25 23 25 25 24 26 21 23 27 24 27 27 24 28
76 82 89 92 93 91 92 92 93 91 90 88 87 84 80 84 86 92 77 61 33 34 32 28 30 27 20 17 19 19 19 21 21 25 27 30 26 27 26 26 24 24 26 30 28 28 31
75 84 88 90 91 90 90 91 93 92 91 89 89 87 87 87 85 91 74 56 47 45 30 29 26 24 22 21 23 22 20 22 27 26 26 27 30 24 26 27 25 26 29 27 29 30 34
74 83 88 90 90 90 91 91 94 92 91 89 88 88 89 86 89 76 71 71 72 56 33 28 26 26 23 21 28 27 24 30 25 30 31 33 24 28 28 32 35 35 30 32 33 34 34
74 82 88 91 90 91 93 92 93 93 90 88 88 90 89 83 63 70 65 64 76 56 48 32 25 21 21 24 26 26 29 27 31 28 29 26 25 32 35 34 34 38 31 39 40 41 36
74 82 88 91 91 92 93 94 94 94 92 88 88 88 85 62 67 63 64 78 80 52 56 31 26 18 24 25 28 27 31 31 37 36 31 28 32 35 38 34 34 39 42 44 43 45 42
75 84 88 90 92 93 93 94 94 94 92 88 88 87 79 63 76 75 83 75 64 69 54 37 27 29 28 33 35 34 38 35 33 39 40 39 32 32 33 34 38 40 43 41 46 47 51
79 86 88 91 93 94 92 94 94 95 92 88 91 89 79 72 58 84 82 64 64 68 42 36 32 31 34 38 40 41 46 51 50 40 60 44 40 39 37 38 38 42 44 50 62 64 57
87 88 89 91 94 94 93 94 94 95 92 88 91 85 87 87 90 84 68 65 61 54 45 36 33 39 38 38 42 47 46 51 50 50 61 58 44 43 43 40 42 48 50 65 58 66 61
90 90 91 93 94 94 93 93 94 94 94 89 86 76 79 83 90 75 63 81 63 51 39 37 38 41 43 44 43 48 55 53 52 54 56 66 50 45 47 46 40 46 60 52 71 90 80
86 90 92 95 95 95 94 94 94 95 94 92 74 70 72 84 83 66 82 66 48 45 40 41 47 48 49 52 48 51 51 48 46 55 50 58 61 46 44 41 44 44 46 57 70 79 70
86 89 92 95 97 95 93 95 98 98 96 91 70 63 64 87 68 62 76 62 46 47 46 46 50 54 52 55 52 54 53 49 46 49 52 51 57 47 46 51 54 53 56 62 60 74 83
88 89 91 95 98 96 95 99 98 98 96 74 69 68 71 75 60 78 62 44 54 49 48 50 52 54 56 59 61 58 58 51 52 50 54 57 66 61 45 47 50 51 54 54 64 64 76
90 90 90 94 97 98 98 98 98 97 95 76 71 71 70 65 80 89 61 56 53 50 54 50 56 57 58 62 66 60 59 62 58 54 57 56 68 61 38 43 44 56 57 63 69 77 75
90 91 92 92 96 98 98 98 98 96 95 76 67 87 80 79 73 62 60 60 58 54 56 60 55 55 59 64 66 67 64 62 65 60 77 65 66 60 55 42 50 63 63 64 66 89 68
90 91 93 93 96 99 98 98 98 98 96 72 78 81 78 83 80 67 63 56 57 56 54 56 58 56 58 70 70 73 64 60 59 70 67 64 77 70 65 60 66 66 66 67 72 68 81
92 92 94 95 98 98 98 99 99 97 94 80 78 80 84 84 70 62 72 64 62 59 55 61 63 64 59 63 56 68 64 68 64 61 69 72 80 85 86 76 73 83 68 71 72 70 70
94 93 94 95 98 99 98 99 98 95 86 82 94 82 75 92 74 75 74 60 58 58 62 57 61 63 66 62 60 62 65 70 61 65 75 80 88 94 79 80 79 79 57 67 60 60 61
95 96 95 96 100 98 99 99 97 95 90 86 92 73 84 92 87 76 65 61 62 61 64 60 57 69 59 62 59 58 56 62 62 79 73 98 95 96 96 88 78 49 50 50 57 54 56
96 97 98 98 99 97 98 98 95 95 96 93 95 74 83 100 91 80 67 68 65 69 71 65 76 71 63 67 85 82 77 69 80 88 84 77 97 99 97 84 73 56 48 54 64 55 50
95 97 97 98 99 99 98 98 95 95 95 97 99 88 78 94 88 66 70 69 79 80 80 88 78 76 72 91 90 86 74 67 64 68 79 85 88 96 96 98 95 67 47 51 60 70 58
95 95 96 97 98 98 98 99 97 95 94 95 100 94 76 92 78 72 76 77 74 79 83 85 84 86 78 98 98 93 86 74 74 82 83 98 98 97 92 94 83 62 56 55 87 80 71
95 95 96 97 97 97 97 98 97 95 94 93 99 97 86 95 85 82 72 76 79 79 89 84 85 92 99 100 100 99 96 84 81 69 75 73 87 93 97 98 94 54 57 77 70 70 64
96 97 98 98 98 97 97 98 98 98 99 90 95 96 95 91 78 94 91 80 68 65 80 88 77 84 92 98 98 99 100 98 90 90 70 83 75 81 77 80 64 55 60 58 66 79 81

GFSGBSN_sfc_rhum_018.txt.gz
RH
79 85 85 83 86 88 86 86 90 92 91 90 89 89 88 82 83 86 90 91 91 90 90 88 87 87 51 17 16 11 52 32 12 11 11 11 10 10 9 10 10 12 12 12 10 10 10
86 87 86 87 89 88 87 87 90 91 90 89 89 90 91 90 89 88 91 93 92 92 90 88 86 90 26 17 12 11 10 10 11 11 12 11 13 12 14 14 13 16 14 14 13 13 14
84 87 87 91 92 90 91 93 91 89 89 88 88 89 90 90 92 92 92 92 92 90 90 86 84 48 16 17 12 10 10 11 11 12 13 13 13 13 14 18 17 14 15 14 15 14 14
85 84 84 91 91 92 94 94 91 88 87 86 86 87 88 89 90 90 90 90 89 88 87 84 84 39 17 13 11 11 9 11 12 13 14 14 13 14 16 16 13 12 13 13 16 15 16
86 83 86 91 92 93 94 94 92 87 85 86 85 85 86 87 88 88 88 89 87 85 84 80 42 21 16 20 12 12 11 12 13 14 15 14 13 16 14 13 12 11 11 13 16 16 16
81 80 88 92 92 92 94 93 92 90 87 87 84 83 83 84 85 88 89 87 84 75 52 36 18 17 13 15 13 13 11 14 14 15 14 14 13 13 11 10 11 14 14 17 16 16 16
77 78 87 91 91 91 91 92 92 90 89 87 85 81 78 81 89 91 75 40 24 22 17 18 17 16 14 12 13 13 13 14 12 14 15 17 14 18 16 18 17 16 17 17 15 19 22
75 81 86 90 90 90 89 91 93 91 89 86 87 85 84 85 90 90 54 26 34 27 20 17 16 15 14 14 14 15 14 13 15 16 18 15 21 19 18 19 18 19 19 20 20 21 26
74 81 87 89 88 89 89 91 94 92 89 87 86 87 85 86 91 72 43 47 50 37 18 18 18 16 15 16 22 20 16 17 15 17 17 18 19 20 21 23 24 24 24 28 27 23 24
76 82 87 90 89 90 91 91 92 92 90 87 86 89 86 88 60 44 42 46 52 41 22 20 17 16 15 15 21 19 20 18 19 20 17 20 21 24 24 27 27 24 26 30 29 28 20
76 83 88 91 90 92 92 93 94 93 91 88 86 84 87 78 47 29 47 52 55 42 39 22 18 13 17 19 20 21 20 19 23 24 23 24 25 26 27 28 28 31 33 33 34 30 27
77 85 88 90 92 92 92 93 94 94 91 88 88 81 80 50 51 53 55 54 51 44 40 25 19 21 22 23 24 20 22 20 24 24 21 25 24 25 28 27 28 30 32 33 33 33 40
80 86 88 90 93 93 92 93 94 94 90 87 91 87 61 47 43 62 60 43 35 44 30 25 24 22 26 29 29 26 29 34 30 30 33 27 28 27 30 26 29 26 31 39 52 50 43
86 88 90 91 94 93 92 93 94 94 91 90 89 81 82 58 57 65 47 41 40 37 30 24 24 24 28 29 31 32 28 30 32 30 29 32 37 32 32 34 36 35 36 52 50 49 39
87 88 90 94 94 94 93 94 96 95 93 91 84 54 54 66 67 57 36 58 46 30 25 24 24 27 31 31 30 32 37 36 37 36 36 38 35 31 34 32 33 36 44 39 56 80 65
86 88 91 94 96 94 94 97 97 98 94 91 39 43 50 67 65 47 50 50 33 30 29 25 30 31 33 34 34 34 37 37 37 38 36 42 42 33 32 33 34 34 36 47 46 77 45
84 87 90 96 98 96 97 98 97 96 95 91 47 35 55 64 55 34 53 42 33 33 32 30 33 36 36 38 35 40 40 38 35 39 35 35 41 36 35 38 39 39 42 41 38 52 57
86 87 92 95 97 97 98 98 97 96 94 68 52 43 57 61 40 42 38 31 48 35 34 36 36 37 38 41 43 44 44 40 41 38 40 44 47 41 31 37 38 36 39 37 49 44 54
87 88 90 94 95 98 98 97 98 97 92 46 42 44 51 55 66 75 43 41 38 35 38 35 42 39 41 44 51 44 44 47 41 40 43 42 49 38 34 38 39 42 39 43 47 58 61
88 88 90 94 94 97 97 98 98 98 93 48 41 74 49 41 43 38 41 42 43 40 43 39 41 37 42 46 43 52 49 48 49 45 75 57 46 41 33 28 32 39 34 35 43 71 52
89 88 91 94 95 97 98 98 98 97 95 49 46 59 56 66 54 40 39 38 40 42 41 38 40 38 42 57 48 52 47 47 46 64 52 48 51 44 39 35 35 42 41 37 42 48 60
91 91 93 95 96 98 98 98 98 95 93 52 51 56 51 54 49 41 57 42 38 43 37 42 40 42 36 42 35 48 38 41 39 49 50 52 59 66 60 45 42 51 40 40 44 43 40
93 93 94 95 97 98 98 99 96 96 83 50 63 55 46 75 55 55 51 41 39 40 48 40 40 43 58 41 39 48 48 47 45 47 56 62 70 73 84 56 62 85 51 42 42 37 42
94 95 94 96 98 99 99 98 94 96 83 52 58 47 74 79 62 47 44 42 43 42 48 45 39 64 50 47 46 43 45 49 50 56 57 90 85 91 98 92 92 46 34 34 40 38 33
95 97 97 98 99 98 98 96 94 96 93 60 62 50 66 100 61 54 47 49 50 50 51 47 57 57 47 49 69 100 67 95 80 60 60 60 83 100 100 75 53 40 39 44 46 48 36
96 97 97 98 99 99 98 97 95 95 94 69 77 66 55 88 78 44 49 47 57 61 63 71 62 56 54 80 87 99 70 50 46 55 64 66 76 93 94 99 92 47 39 40 46 55 48
95 96 97 98 98 98 97 98 96 95 94 69 78 82 49 89 54 52 52 54 50 55 62 68 66 76 61 99 100 99 73 54 54 86 90 98 98 99 91 97 70 42 43 45 78 73 58
95 95 96 96 97 97 97 98 96 98 96 72 86 82 64 79 61 61 54 55 53 50 74 70 70 79 94 100 100 98 100 72 64 49 64 66 98 99 95 99 97 40 43 77 64 57 59
95 95 96 97 96 97 97 98 98 98 94 84 66 80 78 68 68 76 73 59 54 42 50 71 60 63 69 91 99 100 100 100 98 82 47 68 57 60 61 64 42 42 47 47 51 62 77

GFSGBSN_sfc_rhum_021.txt.gz
RH
75 80 84 85 84 87 87 85 83 86 93 92 90 88 86 84 81 82 87 91 90 88 88 88 86 87 50 22 12 9 38 34 12 9 8 7 7 6 7 6 5 7 7 6 6 6 7
81 85 86 86 86 88 86 88 88 92 92 90 90 90 90 90 89 86 90 91 90 91 90 88 86 90 30 17 10 8 8 8 8 8 7 7 8 7 6 7 8 9 10 10 9 10 10
84 85 87 87 91 91 90 93 92 90 88 89 90 90 90 90 91 92 92 92 91 90 90 86 84 41 23 14 9 8 8 8 8 10 9 9 8 8 9 13 10 10 11 12 11 11 11
86 85 82 88 92 92 93 94 91 88 86 86 85 88 89 90 90 90 90 89 88 89 88 86 81 32 17 10 8 8 7 8 9 10 10 10 10 11 11 12 10 11 11 13 12 11 12
86 84 81 89 92 92 94 94 89 86 84 84 84 86 87 87 88 88 87 86 87 86 86 79 43 34 14 20 10 8 8 9 11 12 11 10 11 11 13 13 12 10 11 10 14 11 11
83 80 83 90 92 92 93 92 89 86 84 81 81 81 82 84 85 86 88 86 85 79 57 26 16 16 11 12 10 10 9 11 12 13 13 12 11 12 9 9 12 11 10 11 11 12 10
82 74 81 88 90 91 90 90 90 88 86 80 75 79 80 81 87 88 73 32 24 27 16 15 12 13 11 9 10 10 10 11 11 13 14 12 13 14 12 12 12 11 12 12 11 13 15
82 73 81 88 89 88 88 90 91 89 85 81 79 81 78 81 86 89 58 25 27 20 18 13 14 14 13 12 11 12 10 13 14 13 12 11 17 15 13 14 14 14 15 15 15 15 17
81 73 82 87 87 87 88 89 91 90 87 85 83 81 84 88 92 73 33 33 31 25 16 16 14 13 14 12 16 15 12 12 11 11 10 16 16 15 17 17 18 17 19 22 20 16 16
78 74 84 88 88 89 90 90 90 89 87 85 84 79 89 90 64 34 32 34 35 36 20 16 14 13 12 13 18 14 15 14 13 12 12 16 17 18 18 20 20 20 21 23 22 20 18
75 75 85 89 89 91 92 92 92 88 86 86 85 84 89 86 35 25 35 36 40 41 38 18 15 12 12 16 16 17 14 14 14 16 18 20 19 21 22 23 21 23 25 25 24 24 19
72 76 85 88 89 91 91 93 93 90 87 86 85 85 86 52 44 39 37 41 45 43 38 20 15 17 18 17 18 16 17 15 17 16 16 19 18 20 23 22 22 23 25 24 25 24 33
75 80 84 88 90 92 91 93 94 90 85 89 89 84 72 35 34 45 48 41 28 45 20 20 19 18 19 21 22 19 21 24 22 27 27 21 22 22 23 23 23 22 25 39 46 42 40
81 84 86 90 93 91 92 94 96 91 88 85 87 85 70 43 39 52 43 32 46 26 19 16 17 18 23 20 24 23 20 24 24 22 20 24 36 24 24 27 29 27 29 50 46 43 32
85 86 88 92 94 92 94 96 95 95 89 88 89 49 45 57 55 50 30 49 35 22 18 19 18 21 24 24 23 26 28 28 28 27 29 30 30 24 27 25 26 29 36 29 46 58 54
87 87 89 95 98 95 98 96 94 96 91 88 31 32 36 57 57 48 40 45 27 22 19 17 24 24 26 25 26 26 28 29 29 28 26 30 36 24 24 25 28 28 27 43 41 66 41
85 86 89 95 97 96 97 96 95 95 92 88 37 29 53 53 51 29 44 33 27 24 22 22 24 26 25 29 26 30 31 31 28 30 26 24 30 29 23 28 26 29 32 32 27 40 48
85 86 91 93 96 97 96 96 96 95 91 80 42 35 49 51 30 32 36 26 42 26 27 27 26 26 28 29 31 34 34 34 32 29 31 32 34 40 22 25 28 27 30 30 47 37 43
86 87 89 92 94 98 96 96 96 96 92 36 30 37 44 50 58 63 35 33 27 28 27 27 33 29 30 32 42 35 36 39 32 33 38 34 41 39 27 31 31 32 28 30 34 49 48
87 87 89 93 94 96 97 98 97 96 92 51 31 60 38 37 32 30 34 32 36 33 33 29 32 29 33 35 32 41 40 41 41 38 70 52 34 35 40 29 23 29 25 23 30 55 52
88 88 90 94 94 98 97 97 98 96 93 52 32 44 40 52 43 32 31 29 32 34 31 28 32 30 33 43 37 40 36 42 40 62 42 39 47 35 32 25 23 25 28 27 29 31 50
90 91 93 94 96 97 98 98 96 95 92 39 34 41 38 40 34 34 47 32 29 32 29 32 32 30 28 42 28 37 30 30 32 38 39 38 54 58 51 30 26 34 27 27 27 31 30
91 93 94 94 97 98 98 97 94 96 89 36 41 42 37 63 42 43 39 32 29 33 39 26 29 30 46 33 35 37 37 34 33 37 44 50 61 58 69 47 58 84 43 30 28 29 34
93 94 95 95 98 99 99 96 95 95 90 40 44 36 66 67 49 37 33 30 32 32 39 32 29 48 44 35 35 35 37 38 38 42 42 72 64 84 95 89 91 39 26 26 31 29 27
96 96 96 97 98 99 98 95 95 96 93 44 42 40 61 100 42 40 36 34 39 39 39 42 47 42 38 39 60 81 67 91 71 42 44 45 70 92 99 65 46 37 35 36 42 43 29
96 98 98 98 97 97 97 96 94 95 94 50 57 55 48 86 74 33 40 40 51 54 56 59 51 45 47 69 79 98 68 39 44 49 47 54 68 82 90 98 90 45 31 33 35 56 41
96 96 97 98 97 96 96 96 96 98 94 57 60 73 40 79 45 38 47 48 36 43 50 56 57 66 50 94 99 98 60 39 44 82 91 94 95 98 90 96 63 34 35 37 66 69 52
95 96 97 97 98 96 96 97 99 98 94 65 63 68 56 64 53 47 42 46 45 40 72 57 60 67 81 100 100 90 100 61 56 37 62 74 93 98 90 97 92 34 37 75 60 59 62
95 95 96 96 96 96 96 97 99 97 93 90 48 58 57 52 60 61 58 56 52 44 38 58 48 56 56 77 94 98 100 99 88 69 30 53 51 59 57 59 36 36 42 47 52 59 64

GFSGBSN_sfc_rhum_024.txt.gz
RH
74 77 82 85 84 84 86 88 90 83 82 89 92 91 87 84 86 84 83 89 90 89 87 87 87 89 62 31 13 9 35 39 19 17 11 8 8 7 7 6 6 7 5 5 5 6 7
80 83 86 86 84 85 86 89 91 93 92 93 92 91 90 89 90 86 85 91 92 90 90 88 87 91 48 25 8 8 8 8 7 7 6 7 7 6 5 5 7 7 7 7 7 8 8
81 85 86 88 87 90 90 92 93 94 92 91 91 91 90 90 90 92 92 91 91 91 90 86 85 55 31 17 7 7 7 8 8 9 9 8 7 7 8 11 8 8 10 10 10 10 9
84 85 84 86 89 92 92 93 94 91 90 90 89 90 89 90 90 90 91 90 89 88 88 87 84 44 26 10 8 8 6 7 7 8 9 8 8 11 12 10 8 10 11 14 11 10 11
85 84 83 85 91 92 92 94 93 88 86 87 88 88 88 89 89 89 88 88 87 87 86 82 57 38 21 20 9 7 7 8 8 9 10 8 10 10 10 12 13 11 14 14 14 9 11
83 82 81 86 91 91 92 93 92 88 85 83 84 84 85 87 87 87 86 86 85 81 63 34 25 25 12 10 8 8 7 10 10 12 12 12 12 12 12 13 20 15 10 10 12 12 9
83 81 75 83 91 91 89 89 90 88 84 79 78 81 82 84 85 85 81 41 29 30 23 15 12 13 9 7 7 8 8 10 11 13 17 12 15 16 13 12 10 10 10 10 10 12 13
83 79 74 82 88 88 86 88 91 89 83 79 76 79 79 82 83 87 65 32 26 22 20 12 12 12 10 10 11 10 10 13 14 16 12 11 16 14 11 11 12 12 14 14 13 13 15
83 77 74 82 87 87 87 88 91 89 84 81 81 81 81 82 89 73 37 32 26 28 17 14 12 11 12 11 13 12 12 11 12 13 10 20 16 13 13 14 16 14 17 23 20 16 14
83 76 77 84 88 88 89 90 90 87 83 81 82 80 88 92 67 35 32 27 30 38 22 15 14 11 11 12 16 11 11 14 11 11 10 17 14 15 16 17 19 19 21 22 20 20 21
84 70 79 86 89 90 91 92 90 86 81 81 84 78 90 93 61 27 33 31 34 43 48 16 13 10 10 15 14 14 10 12 14 14 15 19 17 19 19 23 20 22 22 22 22 24 22
82 69 79 86 89 90 91 92 92 88 83 81 82 85 89 57 58 36 35 39 44 56 50 19 13 15 15 15 16 14 13 13 15 13 15 18 15 19 22 20 19 19 24 22 23 26 48
80 75 79 85 89 90 92 94 93 88 87 89 83 86 72 40 45 42 50 43 34 49 16 19 17 16 17 19 17 17 18 20 22 26 27 20 21 21 19 23 21 21 26 53 68 59 59
79 81 78 86 90 91 94 95 96 90 85 82 85 88 67 42 39 53 48 38 49 22 17 13 15 17 21 19 20 19 20 23 21 24 21 25 38 23 20 25 27 26 26 67 60 66 49
82 84 80 88 94 94 95 93 94 94 89 84 88 61 52 62 57 57 42 54 36 19 16 17 16 20 23 21 22 22 25 26 26 27 30 28 31 22 22 22 22 28 38 25 44 71 68
85 86 82 91 97 96 95 93 94 94 90 80 40 43 42 55 57 56 52 52 26 19 14 15 21 19 23 21 24 24 24 25 26 25 22 26 36 21 20 21 26 23 22 44 58 73 52
88 86 82 92 94 95 95 94 94 94 91 89 58 37 58 51 56 37 52 41 24 18 19 18 19 21 21 23 22 25 28 28 25 26 23 24 28 29 21 27 23 27 30 31 26 47 62
87 86 87 89 94 95 95 95 94 96 90 75 57 42 55 56 36 34 39 24 41 23 24 24 22 20 24 24 26 29 31 35 28 25 29 28 32 60 22 20 21 23 28 29 71 52 65
87 87 87 89 93 95 96 96 95 97 92 50 37 47 49 51 55 67 32 26 22 23 22 24 28 25 26 28 38 31 39 34 28 36 45 35 45 58 34 32 29 25 24 26 36 64 63
88 87 88 91 93 95 96 97 96 96 92 58 40 61 40 40 38 34 36 33 34 29 28 24 26 26 29 33 29 36 43 39 38 39 67 54 33 37 52 30 24 27 22 22 27 70 62
88 88 90 93 94 96 97 98 97 95 92 56 41 45 33 51 44 32 29 27 31 35 28 26 28 27 30 43 34 36 37 42 38 57 39 39 49 36 33 24 23 24 26 25 28 31 49
89 90 93 94 95 97 98 97 94 94 93 52 45 41 38 35 34 33 45 30 28 24 28 28 29 27 28 41 32 36 31 31 35 35 37 37 66 68 59 26 26 34 29 30 27 26 26
91 92 94 94 96 97 98 95 95 95 88 44 39 40 38 59 40 44 42 30 26 30 35 25 26 31 55 41 39 36 34 31 30 38 43 50 76 75 79 57 63 89 56 29 28 27 31
93 94 95 95 98 98 98 94 95 95 94 57 49 38 70 68 47 36 30 27 27 32 34 27 28 51 42 30 35 36 37 38 32 37 38 74 74 93 94 92 86 36 24 25 32 28 28
95 95 95 97 98 98 96 94 94 94 93 51 45 49 64 100 47 34 33 29 36 36 36 45 44 37 35 36 69 71 82 89 66 36 39 43 79 97 100 71 51 36 34 39 44 45 34
97 97 96 98 96 95 96 95 96 97 94 58 67 66 55 88 69 30 33 38 49 54 55 56 46 40 41 82 95 97 79 47 54 50 48 49 74 90 92 95 81 53 32 32 35 63 48
98 98 97 97 96 95 96 97 98 98 92 65 67 75 57 78 43 45 46 51 39 51 59 57 57 67 48 97 100 99 71 36 56 79 96 93 94 99 85 86 70 36 34 36 65 77 64
96 96 97 98 96 96 96 98 97 92 92 75 68 68 66 68 52 45 40 43 42 47 82 58 64 72 95 100 100 94 100 80 63 41 77 83 93 97 84 96 88 34 37 81 68 62 64
95 96 97 96 96 95 96 97 95 94 92 91 55 59 62 60 63 57 57 54 50 48 44 60 48 59 68 84 93 97 100 99 96 79 27 62 68 74 68 72 53 49 56 63 65 66 72

GFSGBSN_sfc_rhum_030.txt.gz
RH
81 80 81 82 84 88 86 86 91 94 94 94 95 91 91 90 90 92 92 92 88 91 90 89 88 90 84 62 36 19 63 73 53 34 28 25 27 18 15 13 10 10 10 9 12 11 10
83 84 85 88 89 87 84 88 92 93 94 95 96 95 95 93 92 91 91 92 86 92 92 89 89 90 74 47 20 15 22 39 25 24 24 26 22 15 16 14 10 9 9 9 10 14 13
84 86 89 91 92 91 88 92 93 93 95 95 95 94 93 92 92 91 91 93 93 92 90 90 88 74 67 43 25 23 12 13 14 21 19 19 19 17 23 15 12 10 11 12 14 15 16
85 87 86 91 91 90 90 93 93 94 95 94 93 92 92 92 91 91 91 92 92 92 90 88 87 76 46 25 23 14 13 11 12 15 19 18 16 21 17 18 14 16 19 21 17 16 16
86 88 87 91 91 88 92 93 94 94 94 92 91 90 91 90 90 90 90 90 90 89 88 84 82 79 30 28 14 10 13 13 15 14 17 11 17 24 17 23 24 23 23 24 23 16 18
86 89 90 90 87 88 92 93 93 94 93 91 89 88 88 88 89 89 89 88 86 88 84 62 48 52 35 26 14 13 13 15 20 19 19 18 26 26 25 26 29 28 24 24 24 20 20
88 89 90 88 84 89 92 92 93 93 92 90 88 85 85 86 87 87 93 77 52 55 58 29 32 36 22 17 13 14 14 17 20 24 30 26 27 28 23 22 19 20 26 24 26 21 20
90 90 89 85 83 89 90 91 92 92 91 88 85 83 82 83 85 86 88 65 46 43 36 29 34 31 23 13 20 17 16 24 28 29 29 28 31 22 19 24 28 25 29 31 24 21 20
91 91 88 82 83 89 90 89 91 92 91 87 83 83 81 84 87 85 68 57 48 51 54 23 24 20 19 19 23 19 20 27 26 28 29 32 23 20 26 30 29 38 36 38 32 30 27
91 90 88 79 84 89 90 89 91 92 90 86 82 82 84 91 72 69 53 38 49 52 43 27 24 19 18 20 25 17 17 23 27 30 25 26 21 24 32 30 32 45 36 33 32 35 33
91 90 86 78 85 89 90 91 92 92 89 86 82 85 90 86 71 70 53 64 65 54 57 25 23 15 17 23 23 22 18 24 30 25 27 32 35 33 33 34 30 35 34 38 39 42 47
91 89 82 80 86 89 90 93 96 94 89 85 82 89 92 72 85 73 74 78 51 78 57 30 22 23 22 26 25 21 24 23 27 26 26 28 29 30 34 30 31 30 38 46 46 50 66
90 88 81 83 87 90 93 92 93 97 88 87 88 90 83 64 76 78 83 55 61 80 30 27 27 23 26 28 28 26 30 37 45 40 42 33 36 31 31 37 33 34 55 76 77 81 74
89 86 82 86 89 93 92 92 93 96 90 90 90 92 80 72 88 82 71 55 74 46 33 24 27 30 30 29 30 33 35 43 37 45 43 49 53 36 30 37 41 42 51 78 67 81 70
89 84 84 88 96 94 92 91 92 95 92 92 91 87 91 87 81 82 67 85 68 47 26 26 28 35 37 33 30 36 43 42 41 42 46 53 46 36 33 33 35 42 51 42 70 81 80
87 84 86 94 94 92 93 91 92 95 92 86 83 85 77 82 84 73 84 82 55 33 30 27 35 34 38 33 37 41 46 42 41 38 43 44 49 35 33 30 33 33 36 59 74 69 71
86 86 88 96 94 93 91 91 92 96 90 90 86 58 65 85 67 68 82 75 47 33 35 34 38 33 35 36 37 48 50 46 42 40 37 48 49 44 39 38 42 41 48 50 52 74 78
88 90 89 92 94 93 92 91 92 95 92 80 85 67 78 63 45 86 70 50 43 34 34 35 41 43 38 38 49 59 55 51 50 53 43 49 56 67 44 35 34 37 46 52 78 60 86
90 90 89 92 94 93 92 92 93 95 92 84 77 91 83 58 61 87 57 44 39 37 38 39 45 42 43 48 62 62 60 61 48 53 61 51 57 76 57 49 44 40 40 56 65 77 65
91 90 89 92 94 93 93 93 93 96 90 91 85 86 81 88 74 56 64 48 50 46 42 39 40 39 45 51 56 64 64 57 53 49 71 62 56 57 67 55 45 43 39 53 60 84 76
90 90 90 94 93 94 94 95 94 93 91 81 90 74 60 68 62 70 60 48 51 51 44 40 40 43 47 61 62 69 65 62 54 60 56 58 67 64 58 47 44 42 43 44 46 54 68
90 91 93 94 96 96 96 96 95 93 90 79 82 77 71 61 48 55 70 54 50 48 44 48 47 51 50 61 56 67 59 64 61 55 62 66 79 72 57 63 62 52 48 56 54 46 46
91 92 96 94 94 96 97 96 97 96 87 70 78 77 66 86 58 65 67 50 51 47 49 56 57 64 67 60 65 65 62 56 55 56 72 76 82 79 64 80 71 72 60 52 45 50 48
92 94 94 95 96 97 96 96 97 96 93 86 90 86 83 80 70 55 54 49 53 52 63 63 60 62 58 56 51 41 47 55 56 68 65 79 92 94 80 76 51 46 48 42 64 70 66
94 96 94 96 98 96 98 99 98 98 95 92 91 85 84 97 87 60 56 68 70 73 73 73 70 60 59 65 73 55 80 61 71 74 82 70 89 98 77 91 55 48 51 52 54 79 72
95 95 95 98 97 98 98 98 95 93 95 93 96 96 81 92 84 71 67 66 80 85 83 77 66 71 74 94 78 80 76 50 76 73 70 80 83 81 98 70 65 56 53 46 49 79 77
96 95 98 97 97 98 98 98 94 93 94 88 93 92 83 91 83 78 71 71 76 84 89 84 78 77 74 98 99 88 86 64 84 85 92 98 96 97 99 95 82 58 54 49 75 70 84
97 98 98 97 96 96 96 96 96 95 95 81 91 91 81 95 91 85 80 75 79 81 87 79 76 84 99 88 92 98 98 86 84 75 82 83 94 98 94 94 86 56 58 67 70 90 84
99 98 98 96 96 99 98 98 99 94 95 91 82 91 90 90 90 81 82 81 82 76 82 80 63 85 88 97 98 98 98 99 90 87 68 68 72 83 77 79 62 65 63 76 83 88 85

GFSGBSN_sfc_rhum_033.txt.gz
RH
87 83 83 84 85 86 86 87 90 92 94 94 94 94 93 90 90 93 94 92 92 88 91 90 88 90 90 67 38 20 78 79 48 34 28 27 30 26 20 16 12 11 11 12 12 10 9
90 86 86 86 86 85 86 87 90 93 94 94 95 96 96 95 93 93 92 91 92 88 93 90 88 90 81 39 19 20 32 39 32 32 28 27 24 24 20 11 10 10 11 12 14 13 13
89 86 86 88 90 90 90 90 91 93 93 94 95 96 95 94 93 92 91 91 93 93 92 88 88 81 70 33 28 29 22 24 28 24 21 23 24 20 19 21 13 12 12 13 15 16 16
87 86 87 90 92 92 92 90 92 93 94 95 95 94 94 93 93 92 91 92 92 93 92 90 88 86 49 25 32 25 15 12 15 22 18 17 18 19 19 16 18 18 19 20 17 17 17
87 87 88 90 92 92 91 90 93 93 94 95 94 93 92 92 92 90 90 91 90 89 89 86 91 82 28 26 19 14 14 14 17 19 22 13 20 24 21 22 24 24 25 27 22 18 20
87 87 88 90 91 91 88 91 93 94 94 94 92 91 90 90 90 90 90 89 87 89 85 69 59 56 32 22 18 14 15 18 20 23 20 22 28 25 27 24 25 26 28 26 24 23 23
86 86 89 90 91 89 87 92 93 93 93 93 91 89 87 87 88 88 92 86 58 61 65 31 30 35 31 19 14 14 15 18 20 24 30 28 28 28 28 26 23 26 28 31 28 23 22
87 87 90 90 90 86 87 92 92 93 92 92 90 87 85 86 87 88 88 62 40 45 43 40 40 36 30 28 21 18 18 22 25 31 31 28 33 28 24 32 27 29 30 32 31 28 28
88 89 91 90 89 84 88 91 91 92 92 92 88 84 83 86 88 82 64 55 52 51 54 34 25 26 24 22 23 21 22 28 28 30 31 31 28 26 27 33 36 41 38 40 33 30 30
89 90 91 90 87 84 89 90 90 92 92 91 86 85 88 91 67 67 51 46 59 50 45 28 25 19 19 22 25 19 20 23 28 30 28 27 32 31 33 31 38 45 38 34 34 33 38
90 91 91 89 85 86 90 90 91 92 92 90 86 87 90 86 68 76 55 73 66 50 62 26 24 17 20 24 22 21 19 24 29 27 29 35 38 36 34 37 33 38 37 39 40 45 49
90 90 90 89 84 88 90 91 93 95 92 88 87 89 91 84 87 67 78 73 50 71 50 30 24 24 24 28 27 24 24 27 30 31 30 34 34 33 36 35 35 34 42 50 57 54 66
89 90 90 87 85 89 90 92 94 94 95 87 89 94 79 69 77 81 84 49 56 84 34 32 32 25 29 32 30 29 39 42 42 40 44 39 39 35 36 41 38 40 55 75 79 80 74
89 90 89 84 88 90 92 92 92 94 95 87 94 95 85 67 90 84 60 46 72 50 34 29 30 31 33 32 36 38 41 44 40 44 48 53 52 40 32 40 42 48 53 76 64 78 69
88 89 87 87 91 94 93 92 91 95 92 94 93 88 94 88 87 76 56 70 67 55 31 30 33 37 42 36 37 40 47 46 44 45 47 53 48 38 34 36 37 47 52 47 76 84 80
88 88 84 91 95 93 94 92 91 95 91 93 88 88 81 85 83 72 75 70 63 43 34 30 40 38 41 36 42 46 50 46 42 42 45 47 51 39 34 34 36 35 38 63 75 69 70
89 86 89 96 95 93 94 92 92 95 91 92 80 55 59 90 59 61 71 75 61 34 39 32 36 41 39 39 44 53 54 50 47 47 42 49 47 44 43 40 45 43 50 56 59 77 79
88 86 94 98 96 94 94 92 92 96 93 82 77 62 77 55 50 87 75 60 52 37 36 40 43 44 42 44 59 59 57 56 57 54 44 54 57 68 47 40 42 42 51 52 70 57 88
87 90 94 94 95 94 94 92 93 96 90 86 80 95 86 48 61 89 58 49 46 39 39 43 47 47 50 59 62 65 64 62 49 55 56 51 58 71 55 49 44 45 48 63 66 76 68
90 92 92 94 94 94 94 92 93 96 93 87 83 90 83 90 69 53 59 57 53 48 44 42 43 45 49 60 64 68 68 62 56 50 70 59 63 56 62 53 52 44 43 59 59 83 75
91 92 93 94 94 95 93 93 94 97 94 83 88 75 69 79 78 77 59 55 52 51 46 42 45 47 50 64 70 74 70 65 54 62 60 56 64 68 58 54 48 44 41 53 56 58 64
91 93 96 96 96 95 95 96 95 95 93 81 90 78 78 62 56 65 76 60 51 51 47 50 47 60 56 56 55 69 63 63 52 57 70 70 78 71 61 70 66 54 43 48 51 52 60
92 95 95 96 96 95 96 95 96 94 78 80 86 88 69 86 69 68 74 55 52 51 64 59 56 63 66 66 67 68 66 64 58 60 79 75 79 69 54 80 61 58 48 53 51 51 54
95 97 96 96 97 97 96 98 98 93 89 87 94 83 84 89 65 54 59 54 56 54 62 67 59 62 58 57 48 46 51 66 70 78 68 81 91 87 72 74 52 41 50 51 52 72 70
97 95 96 96 98 98 98 98 98 98 94 91 96 86 82 98 82 65 66 76 74 78 79 78 74 65 62 55 65 50 72 60 70 80 82 74 89 97 78 79 50 40 58 67 57 59 73
96 96 99 98 97 98 98 98 95 95 95 92 98 92 81 93 84 70 74 69 79 85 80 80 74 75 68 88 76 66 59 45 76 81 78 78 77 76 98 66 57 46 58 51 52 76 76
96 98 98 98 98 98 99 97 97 96 95 88 96 93 81 93 89 81 75 72 78 83 87 82 78 79 69 95 91 84 79 62 81 82 92 99 97 91 100 86 74 53 54 53 70 60 86
97 99 98 97 98 99 99 98 97 96 92 84 94 95 80 98 92 88 85 78 82 82 84 78 76 83 93 83 86 96 95 88 85 76 84 91 97 99 95 95 78 56 59 65 66 86 85
99 98 97 99 98 98 98 98 99 96 93 84 90 96 93 91 90 85 84 84 86 66 84 83 69 80 84 94 98 98 99 99 89 83 74 76 69 83 78 79 61 61 68 69 80 85 87

GFSGBSN_sfc_rhum_036.txt.gz
RH
88 86 86 85 86 87 84 86 90 92 93 93 94 94 93 91 88 92 94 95 93 92 89 90 89 89 91 73 40 44 82 78 41 29 26 29 32 30 29 22 17 16 12 14 11 11 16
90 90 89 88 87 86 82 86 90 92 92 93 94 94 96 95 94 94 95 93 92 92 88 91 89 91 82 44 21 38 50 43 37 30 30 27 28 29 28 19 11 12 12 14 13 12 14
89 90 91 89 88 88 87 90 92 91 91 94 94 95 96 95 95 94 93 92 92 93 92 90 88 86 78 42 26 31 29 32 31 28 26 28 26 25 23 20 14 14 13 13 14 16 18
89 90 91 90 88 90 91 92 92 90 92 94 94 96 95 94 94 94 93 92 92 92 92 91 88 89 58 27 34 27 26 17 26 27 24 22 25 25 22 20 19 18 20 18 16 17 20
89 89 90 88 89 91 92 92 91 90 93 94 95 95 93 93 93 93 92 91 91 90 89 87 92 88 41 26 23 17 18 16 20 24 20 16 21 24 22 22 24 24 24 28 24 20 20
89 89 89 88 89 91 92 92 90 91 94 94 94 93 92 91 92 92 91 89 88 90 88 74 68 64 33 22 24 14 16 18 23 27 21 23 28 26 27 21 27 25 27 28 28 25 21
89 88 88 88 89 90 90 90 89 93 94 93 93 92 90 90 90 90 93 90 62 64 76 38 34 33 33 26 19 16 16 21 24 25 31 30 26 28 25 26 24 26 26 30 31 26 37
89 88 88 87 88 89 89 88 90 93 93 92 93 90 89 88 89 90 94 66 42 42 55 48 42 41 34 30 29 18 19 24 27 32 33 31 33 28 33 31 32 30 31 35 35 31 41
90 89 88 88 88 90 89 86 91 93 92 92 92 89 87 88 89 94 79 56 54 53 60 38 38 29 22 26 27 21 23 28 28 30 30 32 32 30 34 39 37 43 37 42 36 37 38
90 90 89 88 89 90 89 86 92 92 92 92 91 89 90 92 82 72 54 40 66 52 45 30 28 23 21 24 28 20 22 24 29 31 28 34 36 33 34 33 40 44 41 36 36 34 42
91 90 90 90 90 91 89 88 91 92 92 93 91 89 91 84 75 73 44 74 74 44 56 29 26 19 23 23 22 22 25 25 28 32 31 40 40 36 35 39 35 42 39 41 42 48 47
92 90 90 90 91 90 87 88 92 92 95 93 91 90 93 87 91 74 81 64 47 69 62 34 24 24 28 29 29 27 31 30 29 35 36 40 37 36 39 38 36 37 47 53 60 58 68
92 90 90 90 91 88 86 90 92 94 94 94 91 92 89 69 76 87 78 46 55 75 36 36 32 27 32 36 33 35 41 45 38 44 50 42 42 37 38 41 41 46 56 76 79 80 75
95 94 90 90 89 87 88 92 91 93 94 95 92 95 90 76 90 85 54 43 52 47 42 32 31 33 34 36 41 42 44 47 44 43 52 54 53 43 34 42 44 54 51 77 65 84 73
93 93 90 90 88 86 90 91 93 92 96 95 96 98 95 93 83 70 50 64 51 58 36 34 34 38 46 40 40 44 51 48 47 49 47 54 50 41 38 42 40 52 55 50 79 85 81
88 94 89 88 86 89 91 93 93 93 96 96 93 92 89 90 83 69 62 53 56 55 39 35 39 42 46 42 46 49 53 51 46 45 49 49 54 42 37 38 39 40 45 63 75 66 66
91 94 89 87 88 92 92 93 92 94 95 94 79 73 68 86 55 56 60 56 64 52 40 33 40 45 42 43 50 56 54 53 51 51 46 50 48 46 46 43 48 47 54 61 64 78 77
95 93 88 87 93 93 93 93 92 95 94 94 72 67 84 55 53 85 71 64 60 38 42 44 43 41 44 51 60 59 56 54 62 58 45 57 57 66 48 43 48 46 52 50 63 51 88
96 91 88 94 94 94 94 93 93 96 91 88 90 98 90 49 70 89 60 54 50 41 45 45 50 48 55 62 64 67 67 63 52 57 51 49 59 70 52 44 46 49 59 62 65 76 72
92 88 93 97 95 93 93 92 94 98 94 87 86 95 88 82 70 55 51 54 53 50 49 44 48 50 57 69 67 71 70 63 57 56 71 59 63 56 60 47 54 46 53 62 58 82 72
89 92 94 95 94 93 93 94 94 97 95 92 84 82 79 86 84 60 44 50 53 52 48 44 47 49 56 69 74 76 72 67 53 66 66 54 63 69 65 64 54 47 45 61 57 57 56
90 93 95 93 94 94 93 93 95 97 96 91 90 75 73 72 77 66 72 58 51 54 52 52 48 66 58 61 54 70 65 63 46 65 73 69 78 69 66 74 68 61 48 49 58 56 62
92 94 93 94 94 94 94 95 97 98 86 81 95 87 66 86 81 74 77 62 54 57 68 62 55 61 67 66 69 74 71 68 60 65 79 73 78 71 69 77 60 57 52 52 55 60 56
94 94 93 94 95 96 97 97 96 94 86 85 95 83 84 86 72 71 63 58 59 57 61 72 61 62 63 59 55 48 55 72 76 85 72 79 81 80 69 71 47 36 51 52 54 55 59
96 93 93 94 96 97 97 98 98 93 94 95 97 87 85 97 71 67 70 79 78 81 81 82 80 74 60 50 68 60 70 64 72 86 78 72 84 94 72 74 45 33 58 65 60 54 70
93 94 95 97 98 98 98 98 99 92 92 96 98 94 85 92 83 67 77 76 82 85 83 84 82 73 64 87 76 70 67 58 71 84 83 74 75 76 95 65 54 44 56 56 54 75 67
95 95 98 98 99 98 98 98 96 92 91 91 98 92 84 95 92 81 77 76 77 82 88 83 79 78 67 92 88 79 67 59 73 78 96 98 99 87 100 82 68 51 55 56 69 60 82
97 98 99 99 99 98 99 99 98 95 91 88 97 96 84 98 94 90 87 81 82 82 85 81 78 83 90 80 85 89 90 87 83 73 90 93 98 99 96 93 75 54 60 64 64 78 81
98 99 99 99 98 99 98 99 98 94 91 88 95 97 95 93 93 87 84 84 88 66 85 86 71 80 81 89 96 98 98 98 88 79 80 76 72 83 77 78 61 58 67 71 72 73 86

GFSGBSN_sfc_rhum_039.txt.gz
RH
88 87 87 87 88 88 86 87 88 91 93 94 93 93 92 90 87 86 93 94 94 92 91 87 89 89 82 58 41 41 81 78 43 25 23 24 26 25 27 22 16 16 12 11 11 15 24
90 90 90 89 89 89 86 86 88 91 93 93 92 94 94 94 94 94 95 94 93 91 92 88 90 90 73 40 19 45 44 37 28 25 25 24 22 23 23 17 14 14 12 12 11 13 14
90 91 91 91 91 90 89 88 89 92 93 92 92 94 95 96 95 95 94 93 92 92 92 90 88 85 75 40 21 36 33 31 30 26 26 24 23 21 22 16 11 11 12 13 13 12 13
91 91 91 91 92 92 90 90 91 92 92 91 93 94 96 96 94 94 93 92 92 92 92 91 88 85 56 28 30 28 27 20 26 25 21 22 24 22 18 16 17 14 15 14 13 12 15
92 91 91 91 92 92 90 91 92 91 91 91 94 95 95 94 93 93 92 92 91 90 90 87 88 81 44 30 22 17 17 16 20 26 24 18 23 23 17 20 19 19 17 18 16 15 14
94 91 91 91 92 91 90 91 92 92 91 91 94 94 94 92 92 92 92 90 89 89 85 74 68 64 32 22 23 16 14 17 21 23 23 22 23 22 21 16 21 21 20 20 19 18 28
86 93 91 90 90 90 90 90 92 92 90 92 93 93 93 91 90 90 91 83 62 61 73 43 36 37 28 25 23 14 14 21 20 25 27 26 23 23 18 19 17 19 19 20 21 24 41
89 93 90 90 89 89 89 89 91 91 90 93 93 93 92 90 89 91 89 67 44 42 55 52 46 41 36 30 25 18 19 22 26 27 25 25 27 22 29 25 25 23 25 28 28 30 39
82 93 91 90 89 89 89 89 91 90 91 92 92 92 90 89 91 93 88 66 53 52 62 39 43 34 22 26 25 20 22 26 24 26 26 31 23 27 31 32 31 33 32 30 27 32 36
82 85 93 90 89 89 89 90 91 90 91 92 92 92 91 92 80 79 64 48 53 59 46 33 29 23 22 23 27 17 19 24 27 28 28 31 30 28 29 32 31 36 30 29 27 26 29
81 84 85 92 90 90 91 92 90 90 92 92 93 92 92 84 76 64 50 73 67 51 56 31 24 17 21 22 22 22 25 23 28 28 27 32 32 32 32 32 30 36 35 34 34 36 33
81 81 82 86 90 91 92 92 89 89 92 94 94 92 93 90 90 76 73 62 55 64 59 32 24 23 26 27 26 23 28 27 28 36 34 34 28 29 29 35 32 40 39 43 46 44 47
80 81 80 84 90 91 92 90 88 90 90 92 96 92 88 72 70 86 77 55 56 68 38 33 30 27 31 33 32 34 37 40 33 43 44 36 35 31 33 33 33 37 42 52 56 61 54
80 83 85 88 90 91 90 89 88 91 90 90 96 94 92 79 82 85 59 47 56 45 45 31 29 31 33 32 37 38 37 41 38 38 43 42 38 31 31 32 36 42 40 63 56 64 55
81 82 86 95 91 90 89 87 90 91 90 94 95 96 92 86 83 79 54 63 54 46 40 33 31 36 40 37 38 41 42 41 38 37 40 48 40 31 33 34 32 43 43 41 63 72 63
81 83 89 90 92 91 88 88 91 91 92 96 94 92 83 92 90 66 59 56 41 48 37 34 35 41 44 39 42 42 42 44 39 39 39 44 47 34 30 31 35 35 40 50 55 61 49
82 81 89 88 96 90 88 90 90 92 93 96 89 82 77 91 66 57 60 53 54 53 40 33 38 42 42 43 45 46 46 46 43 41 41 40 46 42 36 33 39 41 46 53 49 57 49
83 84 88 87 94 90 88 89 91 91 94 97 83 72 92 67 58 74 61 48 59 44 42 44 39 40 42 48 52 51 50 46 56 47 40 43 53 56 38 34 36 35 41 44 50 44 66
82 84 88 88 94 89 90 93 91 91 92 90 73 95 95 59 73 84 58 52 46 42 43 42 49 46 54 59 59 58 59 58 48 45 50 48 54 56 42 35 37 38 45 48 52 60 59
84 91 90 91 91 90 93 92 91 93 92 83 92 94 90 71 68 55 54 51 49 51 49 45 49 51 58 62 62 66 62 56 55 51 73 57 53 51 52 40 43 41 52 47 47 63 53
91 91 94 92 91 93 93 91 91 94 94 90 82 84 79 83 72 56 46 51 48 52 48 45 48 49 56 66 65 69 61 53 49 68 60 51 53 50 51 52 44 36 40 52 47 46 51
93 92 95 95 94 93 94 91 90 94 95 93 84 75 73 74 70 55 68 58 50 53 54 50 52 57 52 60 52 68 60 56 44 57 60 58 64 55 58 59 57 51 42 43 52 48 43
93 94 95 94 94 94 94 90 90 93 89 87 95 76 64 84 79 64 65 62 51 57 65 59 54 57 60 60 62 68 66 64 54 60 68 61 71 65 64 59 48 61 46 43 43 45 43
96 94 92 94 94 94 91 90 91 96 89 81 90 76 77 82 80 60 60 58 57 55 61 68 57 58 61 60 55 49 57 68 65 67 62 68 65 67 68 67 55 35 43 39 44 43 43
94 94 93 94 93 92 91 92 94 96 93 94 94 83 78 98 70 65 70 77 76 79 79 76 77 67 60 53 70 66 72 75 72 72 62 59 70 80 76 54 40 27 40 50 55 41 45
95 92 92 93 93 92 93 95 96 93 93 97 97 92 79 86 77 61 76 73 78 84 81 87 74 63 62 78 78 78 75 59 55 68 73 63 67 75 78 62 59 39 37 48 44 60 45
92 93 94 93 94 94 95 96 96 90 93 93 99 89 86 94 91 75 75 75 75 79 85 79 71 73 63 85 90 80 66 53 58 69 92 98 95 90 83 78 60 42 40 47 54 52 55
94 95 95 97 95 95 97 98 96 88 92 90 99 95 83 97 95 89 82 77 77 77 83 80 76 81 86 90 93 80 89 75 66 59 86 77 92 95 90 83 72 45 50 63 58 56 59
96 96 96 95 95 97 98 97 91 86 88 91 98 98 91 91 91 85 82 82 85 65 79 83 70 76 75 86 90 92 98 98 81 73 69 69 68 73 66 67 55 49 58 56 58 59 62

GFSGBSN_sfc_rhum_042.txt.gz
RH
91 89 88 89 88 89 89 89 90 90 91 92 93 93 90 90 90 88 85 91 94 92 90 88 86 89 60 40 22 30 73 70 25 17 14 16 15 13 12 10 12 13 11 10 17 20 19
93 91 90 90 90 90 89 89 90 90 90 92 93 92 92 93 93 94 94 94 94 92 90 87 88 90 52 31 11 23 27 24 18 16 15 15 14 12 16 16 13 12 9 10 14 18 18
90 92 91 91 91 90 90 91 91 90 90 92 92 91 93 94 94 95 94 94 92 91 89 88 86 59 49 26 14 21 22 18 17 16 16 14 13 16 18 16 8 10 11 11 12 16 17
87 90 92 92 92 91 91 92 91 90 90 91 91 91 94 94 94 93 93 92 91 90 89 88 86 60 34 16 15 16 14 16 18 16 16 15 16 16 18 12 11 10 10 14 13 14 13
87 88 94 93 93 92 92 91 91 90 90 91 90 91 93 94 93 92 92 90 89 87 86 84 64 58 27 24 16 11 13 11 17 19 19 17 18 18 16 13 11 10 11 11 12 11 13
83 85 88 94 93 92 92 91 91 90 91 90 90 91 93 92 92 91 91 87 86 84 67 55 49 58 27 15 14 14 9 11 14 19 19 18 17 13 13 11 13 14 10 11 11 13 10
82 80 86 93 93 92 91 90 91 91 90 89 89 92 92 92 90 90 78 53 48 45 49 29 23 29 18 15 14 10 9 13 15 16 17 18 17 14 11 11 11 12 13 11 12 17 16
83 82 84 88 93 92 91 90 91 91 90 89 89 92 91 91 89 91 64 38 29 40 34 29 29 29 21 19 18 11 12 12 15 15 20 17 17 19 17 15 14 13 15 17 20 18 20
83 84 84 91 93 91 90 89 91 91 90 89 90 91 91 90 91 81 53 35 37 36 43 27 27 22 16 19 16 11 13 15 13 16 18 17 20 21 18 18 17 20 19 21 18 23 23
82 84 84 82 91 91 90 90 91 91 89 88 90 91 92 92 78 49 45 28 29 39 35 20 20 16 16 18 16 12 13 14 18 18 19 21 21 20 20 22 20 21 21 20 21 20 18
82 84 85 80 84 96 91 91 91 91 89 88 91 91 93 93 58 39 36 33 44 48 36 17 18 13 15 16 14 16 17 15 15 20 21 24 21 21 20 22 22 25 22 21 20 20 21
82 83 84 82 82 84 94 92 92 91 89 90 92 92 93 82 64 49 50 55 53 50 42 23 16 17 18 17 17 17 18 17 19 22 20 23 21 21 22 25 22 26 26 26 25 25 30
83 82 84 83 84 84 91 92 92 90 89 90 91 94 83 54 42 63 59 52 47 47 24 23 21 18 16 20 20 19 21 22 19 28 29 24 24 22 23 25 27 25 24 29 37 38 33
83 82 84 84 82 82 91 91 91 89 91 91 90 94 85 54 47 67 56 48 44 23 24 20 19 17 19 20 22 25 25 24 25 23 22 23 32 22 24 24 22 25 23 32 30 36 31
81 80 83 85 85 86 89 91 89 90 91 90 93 80 72 62 66 68 49 56 34 28 22 21 21 21 24 23 21 24 27 23 25 26 21 28 28 24 26 25 24 31 29 30 42 58 48
79 81 81 83 86 86 89 91 88 90 91 94 59 64 51 55 64 59 56 47 27 31 25 21 23 20 25 24 23 24 27 28 28 28 30 29 34 26 26 24 28 27 27 36 37 47 31
79 80 80 82 87 88 92 91 90 91 92 94 59 51 62 69 68 57 58 36 27 34 28 22 19 26 23 29 23 22 26 32 29 30 28 25 27 33 27 26 24 33 32 31 27 39 31
79 80 81 83 88 87 96 93 90 92 93 97 58 49 87 73 65 62 45 29 44 30 37 26 22 22 25 27 30 26 28 27 36 27 28 32 32 43 29 26 26 25 27 26 32 32 47
80 80 81 84 88 91 94 96 90 93 93 64 51 62 89 64 72 65 35 30 34 28 28 30 28 26 31 31 37 35 37 43 36 31 33 31 36 43 36 29 30 29 28 27 32 38 38
79 81 82 84 87 90 92 96 93 93 93 60 44 73 89 66 39 40 37 31 33 37 32 31 34 35 38 39 40 45 44 42 41 37 69 44 35 34 37 27 27 33 31 28 26 40 26
80 81 83 85 89 90 91 94 92 91 92 82 50 45 47 73 55 38 33 29 28 37 33 32 35 30 33 46 42 45 42 41 41 64 45 36 38 34 33 32 30 27 27 31 29 26 37
82 82 84 85 91 93 92 93 92 93 94 94 54 50 54 52 42 38 44 36 27 37 34 33 33 35 35 38 31 43 38 37 37 44 42 41 46 44 44 42 38 36 28 26 29 26 26
81 82 83 92 94 92 88 93 92 93 91 76 65 49 40 71 46 39 36 32 28 36 49 41 34 39 44 43 44 41 41 34 32 42 47 45 53 49 42 41 39 73 38 27 24 26 29
82 81 90 95 94 92 93 93 92 93 86 57 54 41 55 69 45 33 33 36 36 34 42 46 39 41 51 42 39 38 41 40 38 42 40 52 50 60 64 65 80 20 24 24 26 23 22
83 87 94 95 94 94 94 93 93 94 93 89 64 50 62 99 43 37 37 48 52 53 54 49 55 47 43 40 51 55 65 82 62 46 42 37 48 75 91 41 28 16 22 25 30 22 24
90 94 96 94 94 94 92 93 93 94 93 96 85 78 52 83 67 29 46 49 54 55 60 65 54 46 43 55 67 76 66 46 52 54 49 43 48 58 72 89 89 29 32 36 34 36 30
94 94 95 94 93 93 93 93 94 96 93 95 87 82 50 75 50 51 43 53 48 52 59 58 54 58 48 76 97 80 60 40 47 65 89 83 88 92 77 91 48 26 26 37 43 35 34
94 94 94 92 91 92 92 95 94 94 92 97 95 82 58 80 69 67 56 54 54 49 65 58 54 61 68 91 92 70 90 52 45 37 54 59 80 93 82 99 80 29 40 48 41 38 36
94 94 94 93 93 94 94 94 95 95 91 98 91 83 64 66 74 68 69 66 62 49 48 54 50 51 49 69 84 87 97 96 65 60 46 54 48 52 46 44 38 34 37 40 42 44 41

GFSGBSN_sfc_rhum_045.txt.gz
RH
86 92 91 90 90 90 89 90 90 90 90 90 91 91 89 86 88 92 94 94 93 91 89 87 85 86 65 31 17 25 73 75 25 15 13 12 12 10 10 8 8 10 11 10 14 16 17
84 87 93 91 91 91 89 89 91 91 91 90 90 91 90 90 92 93 94 94 94 91 88 86 85 89 55 26 9 12 17 18 12 13 12 10 11 9 12 12 9 10 13 16 19 20 18
80 85 88 94 92 91 90 91 91 91 91 89 90 90 90 91 93 94 93 93 92 90 87 86 85 55 38 21 10 12 16 13 13 13 13 11 10 13 13 15 10 10 19 19 17 18 18
82 83 84 88 94 93 92 92 92 91 90 89 89 89 90 92 93 93 92 92 90 88 86 86 86 47 33 12 10 11 11 12 12 13 13 12 13 14 16 12 10 13 11 21 15 16 16
82 83 85 86 95 94 93 92 92 91 90 90 89 89 89 92 92 92 91 90 88 85 84 80 65 44 26 24 13 9 9 11 13 14 14 13 16 19 17 13 14 11 15 15 15 12 12
83 81 86 85 89 95 94 92 92 91 90 90 89 88 89 92 92 90 90 87 84 82 67 39 32 42 26 14 11 11 8 9 14 17 18 18 18 19 16 14 16 13 13 12 14 12 10
78 82 83 81 81 93 94 92 92 91 90 89 88 87 90 91 91 89 81 47 42 45 38 24 20 18 16 13 10 10 8 10 13 15 18 18 20 18 16 13 11 11 9 10 8 8 9
76 81 82 82 82 86 94 92 93 92 90 88 88 87 90 90 89 89 66 34 26 37 37 22 16 18 16 14 16 10 9 12 14 23 21 17 22 15 10 9 10 10 13 11 11 9 14
75 81 82 83 81 84 92 93 93 92 90 88 88 88 89 89 90 78 46 33 28 31 41 20 16 16 15 13 14 10 10 11 14 17 17 30 19 16 12 11 12 12 14 23 14 14 12
77 82 84 83 83 83 93 93 92 92 90 89 88 89 89 92 80 40 41 28 27 34 42 21 18 14 12 14 15 8 9 11 13 16 14 25 23 15 13 13 13 17 16 14 15 17 18
78 79 82 85 84 84 83 94 92 92 90 89 88 90 92 97 61 38 36 25 32 49 51 14 13 9 10 14 11 11 9 11 15 13 15 18 16 14 14 17 15 23 17 16 15 14 17
79 79 82 84 85 83 82 96 92 92 90 89 90 91 92 76 65 45 38 46 47 59 52 17 13 16 16 14 12 10 11 10 13 14 14 41 16 15 18 17 16 19 19 18 17 17 28
77 80 82 83 87 84 82 91 94 92 91 90 92 92 83 43 42 41 46 56 56 50 17 16 17 15 16 16 15 13 15 15 16 20 22 18 17 18 17 19 19 18 21 36 35 30 32
79 80 83 84 86 85 84 85 95 93 91 93 93 93 85 46 42 58 54 66 56 23 21 13 14 15 17 14 14 14 14 14 12 15 16 21 28 18 16 19 20 19 18 29 31 30 24
78 79 83 82 84 86 85 85 94 93 92 92 92 72 62 59 56 60 51 71 45 21 15 16 15 18 17 14 15 16 18 15 13 14 22 26 22 18 19 18 17 22 22 21 28 50 41
84 78 82 83 84 86 86 85 94 94 93 93 56 60 51 52 63 61 58 59 31 18 14 15 21 16 19 18 19 17 17 14 16 19 18 18 25 19 20 20 21 21 20 28 27 39 30
88 79 84 82 84 86 88 87 93 94 92 92 54 58 41 54 57 60 62 46 30 18 21 18 18 18 16 18 17 17 16 21 19 22 22 16 20 27 22 21 17 25 25 22 21 28 35
89 78 81 80 82 86 88 87 91 94 92 87 61 60 62 61 47 50 52 36 33 19 26 22 20 16 18 17 20 18 17 17 20 20 21 20 22 30 24 19 18 19 20 21 36 28 32
82 81 81 81 83 85 88 87 92 95 90 62 70 69 86 57 51 67 41 35 25 21 24 25 21 16 18 21 26 21 19 36 25 26 22 25 24 32 29 25 24 24 20 19 21 30 32
86 81 81 82 83 84 88 87 91 95 87 59 61 85 98 81 34 46 45 38 30 24 26 21 19 17 21 21 20 25 25 35 34 26 61 42 22 26 34 23 21 30 23 20 24 40 31
87 80 81 82 82 85 88 89 95 94 87 74 79 50 53 70 46 42 39 31 30 26 28 25 24 23 24 28 26 28 27 37 36 57 33 31 34 25 22 23 23 21 20 20 24 24 33
82 78 82 83 83 85 88 88 97 95 88 82 73 40 39 37 37 42 46 35 26 20 26 31 26 21 22 27 28 29 29 32 34 37 35 30 37 35 39 26 28 28 22 21 18 19 15
79 79 81 83 84 85 89 91 95 96 83 83 55 58 37 50 46 44 40 32 24 21 37 30 24 21 28 29 32 31 27 24 25 36 39 39 42 46 44 32 30 63 34 22 18 17 19
79 80 82 83 85 85 89 91 92 96 85 51 50 49 54 64 46 40 31 27 25 28 34 31 26 28 41 32 31 31 30 30 30 34 32 44 46 53 57 67 80 18 16 16 21 18 15
78 80 82 83 84 86 91 89 91 92 90 61 81 76 57 99 43 36 29 28 26 39 35 39 43 36 35 33 45 54 60 68 42 30 30 30 44 60 86 40 26 19 15 20 22 20 14
81 83 83 84 84 87 93 92 94 95 92 86 94 74 68 72 55 26 26 26 39 44 52 55 42 38 40 47 61 54 52 36 44 46 34 32 38 51 58 85 89 32 24 25 24 31 18
83 83 84 84 87 93 92 92 94 93 93 85 79 80 68 45 37 31 33 37 27 35 42 54 53 52 43 74 96 67 55 34 48 63 89 77 80 82 69 84 50 23 22 28 40 41 26
84 85 87 87 91 93 94 94 93 93 91 85 80 73 82 55 50 49 29 30 33 32 58 49 51 55 58 78 85 64 82 50 43 30 52 59 77 91 75 98 81 22 28 38 41 27 31
86 84 92 94 94 95 95 94 92 92 93 89 92 69 61 50 64 59 60 56 50 39 32 48 36 44 43 52 76 82 96 94 62 55 30 47 40 50 42 44 33 24 26 29 30 33 34

GFSGBSN_sfc_rhum_048.txt.gz
RH
81 84 85 88 92 92 90 90 90 90 90 89 90 90 88 86 87 90 93 94 94 91 90 87 85 86 57 41 26 18 75 70 26 16 15 13 12 10 10 8 9 12 11 12 10 25 19
81 82 86 86 93 92 91 90 91 91 90 90 90 89 89 89 90 92 93 94 93 92 90 86 85 90 54 38 10 11 14 24 14 12 13 11 11 10 11 12 10 10 13 16 18 17 17
77 83 85 86 86 94 92 92 91 91 91 90 90 89 88 89 90 92 92 93 92 92 88 86 84 57 42 31 11 11 15 14 12 13 14 11 10 12 12 16 11 14 20 18 19 20 21
77 83 84 86 86 91 94 94 92 91 91 90 89 88 89 89 90 92 92 92 91 90 88 86 84 52 40 15 11 11 11 14 12 11 13 12 13 14 15 17 10 14 18 25 16 19 20
75 78 84 84 87 88 95 94 93 92 91 90 89 88 88 88 91 92 92 91 91 87 85 82 66 51 32 21 14 10 10 11 11 12 14 12 15 18 18 22 19 19 22 20 18 14 17
74 76 83 83 88 86 93 95 94 93 92 91 89 88 87 88 91 91 91 90 78 81 71 41 36 39 30 16 10 8 8 9 13 16 18 18 19 22 20 20 26 21 17 15 16 13 14
76 74 80 84 85 84 84 95 95 94 92 90 88 87 87 89 90 90 80 55 50 58 45 28 23 21 14 12 11 11 10 10 12 17 22 20 23 23 19 16 13 15 15 17 12 11 11
74 76 78 82 82 84 82 88 95 94 93 91 88 87 86 89 89 88 72 44 28 35 46 28 20 17 13 14 16 10 8 12 16 19 18 21 31 21 15 15 14 12 17 16 10 8 10
77 76 77 78 82 83 82 84 94 95 94 91 88 87 87 88 88 81 52 38 25 29 44 30 22 13 13 13 16 12 10 11 14 21 19 26 42 34 21 18 14 13 24 29 22 16 10
78 77 77 76 80 81 84 85 92 96 94 92 88 87 88 91 83 46 43 31 30 39 52 27 19 13 13 13 17 9 8 10 13 19 29 40 29 31 24 14 12 29 26 19 24 35 18
80 79 78 78 82 83 87 85 83 95 94 92 90 88 90 99 67 43 36 28 31 49 74 18 16 9 12 14 11 12 8 10 16 17 21 41 32 29 21 16 17 31 29 26 15 17 22
79 81 78 79 83 83 87 86 83 94 94 92 90 90 91 76 70 54 45 48 42 68 63 17 11 14 15 13 12 9 10 10 11 15 16 30 32 28 23 16 14 22 25 18 18 25 38
79 80 81 79 80 83 85 85 82 94 94 92 90 91 88 45 50 44 51 61 70 59 17 18 15 15 16 17 14 12 14 15 17 24 22 24 17 15 16 16 16 16 21 43 81 75 48
76 80 82 79 80 84 86 85 84 95 95 94 92 93 84 52 46 51 60 79 64 28 29 11 13 16 18 15 14 14 13 15 12 14 16 33 34 19 15 16 46 36 24 70 63 67 42
75 77 83 81 81 84 87 85 85 94 96 95 94 78 69 67 67 61 69 87 50 29 19 17 13 18 18 15 14 15 15 15 12 13 20 26 32 31 18 13 25 32 25 21 27 61 67
76 74 80 86 79 84 86 86 85 94 96 94 74 62 58 62 70 66 79 70 39 24 17 14 19 16 20 16 17 17 16 14 12 11 18 35 62 46 24 17 17 18 16 32 31 51 46
78 76 83 89 80 82 87 86 85 94 96 90 72 61 49 59 68 67 73 61 42 23 19 20 17 17 16 17 16 18 15 13 12 18 18 31 48 32 20 21 15 24 26 19 17 32 57
77 78 84 87 81 81 85 86 87 94 94 97 77 66 56 67 73 51 60 44 38 30 20 21 20 17 17 16 18 18 17 16 16 16 22 19 24 37 24 16 15 18 21 21 60 39 46
76 75 77 86 85 79 82 86 88 93 94 96 74 72 77 63 63 60 44 42 31 30 26 24 27 18 17 18 23 18 17 29 19 20 23 23 31 45 29 21 21 24 17 17 22 38 44
77 74 77 83 90 80 82 86 88 92 94 96 64 89 99 89 46 42 46 44 40 30 24 19 22 19 19 22 19 23 20 32 30 25 58 43 27 28 41 24 21 27 24 18 23 67 49
76 74 75 77 85 78 80 85 87 90 94 99 94 61 68 92 75 48 45 38 36 34 26 23 23 21 21 27 23 23 21 38 33 52 32 30 32 22 18 17 18 23 22 19 21 24 41
74 78 78 82 87 76 80 85 89 91 94 99 88 62 56 49 57 53 47 47 36 30 24 28 28 21 19 26 22 24 23 36 34 36 34 31 41 38 39 28 23 29 22 20 20 20 17
73 81 85 86 84 76 81 86 88 88 95 96 56 65 79 63 60 53 50 46 38 28 25 20 24 26 29 25 25 30 26 27 25 37 40 37 52 58 66 35 37 60 36 25 21 18 20
74 87 86 87 74 82 86 87 89 90 93 74 53 71 90 67 52 44 39 39 36 28 32 24 26 30 32 31 30 30 29 29 28 29 31 42 53 73 80 72 77 27 15 14 19 16 14
75 77 84 78 84 85 86 89 91 92 94 92 69 93 90 99 42 37 38 41 35 30 35 47 36 34 35 38 54 60 68 68 48 29 32 32 57 80 97 60 34 24 17 20 22 23 20
77 80 81 80 83 86 86 88 91 93 93 96 92 96 97 84 54 28 36 36 43 43 53 59 41 40 40 61 77 67 71 41 42 40 28 28 46 77 76 89 89 36 23 20 20 44 21
79 80 81 83 85 87 87 89 89 91 88 80 93 90 97 97 50 33 38 44 34 52 79 59 56 54 48 95 97 83 68 28 51 67 91 83 93 93 80 95 64 24 23 24 49 58 32
80 81 81 84 85 87 88 89 88 90 88 87 91 92 99 91 48 36 31 36 33 47 87 75 57 56 76 88 92 81 94 62 50 36 65 77 88 97 88 100 92 22 25 44 48 38 34
80 82 84 85 86 87 88 90 91 91 92 91 98 89 87 98 74 61 57 52 58 57 51 58 47 51 56 63 82 90 99 97 77 70 27 57 49 67 61 66 40 26 33 34 34 39 41

GFSGBSN_sfc_rhum_051.txt.gz
RH
79 82 85 85 85 91 92 92 91 90 90 89 89 90 90 89 88 90 92 94 93 93 92 90 88 90 83 62 51 26 78 72 38 23 20 21 22 20 18 14 14 15 13 16 33 46 47
76 80 84 86 87 86 94 93 92 91 90 90 90 90 90 89 89 90 91 93 93 93 92 91 88 90 92 58 22 30 36 32 23 19 19 20 18 15 17 17 20 22 22 23 29 34 36
74 77 80 86 89 87 87 95 94 92 91 90 90 90 89 89 89 89 91 92 93 92 92 89 87 74 63 48 22 21 19 21 20 15 17 16 17 19 20 26 22 24 25 23 24 42 47
76 77 78 84 88 88 86 91 96 93 92 91 90 89 89 89 89 89 92 92 92 91 91 90 87 78 73 28 28 24 20 16 18 17 17 18 19 23 26 24 23 24 24 32 25 36 40
76 77 77 80 88 90 88 89 95 95 93 92 91 89 88 88 88 90 92 92 92 90 90 87 90 82 64 31 30 20 16 16 17 16 23 14 22 29 26 33 30 24 28 26 26 34 44
76 77 77 78 84 88 89 88 94 96 94 93 91 90 88 88 88 92 92 90 85 88 79 57 52 64 44 26 18 14 14 14 17 22 26 28 28 35 32 29 36 31 30 24 23 20 30
78 76 77 78 80 87 88 85 90 96 95 94 92 89 88 87 88 90 93 73 76 82 66 53 44 35 21 17 15 16 15 14 17 26 39 29 38 38 29 24 21 21 23 25 19 17 20
79 78 76 77 78 85 86 85 88 94 90 94 92 89 87 86 88 90 96 77 51 51 68 44 39 34 23 19 21 18 14 20 22 33 31 34 49 35 31 29 25 21 22 27 23 16 18
78 81 78 77 76 80 83 84 87 93 95 95 93 89 87 86 89 96 85 60 41 46 72 44 33 36 28 17 21 20 16 16 23 28 32 41 39 28 30 35 36 33 32 32 31 29 23
73 80 81 78 78 78 80 84 87 87 96 95 94 90 87 92 90 76 76 52 51 55 89 43 31 29 22 15 24 16 14 15 22 31 38 42 32 29 34 35 32 38 26 31 28 30 36
75 77 81 80 78 78 80 84 88 87 96 96 94 90 90 88 97 85 59 58 51 63 98 35 27 14 13 21 20 19 13 15 21 34 34 33 33 36 37 32 26 34 32 28 32 39 35
78 76 78 81 78 79 81 85 89 86 86 97 94 91 90 91 97 77 63 61 68 93 89 32 20 19 22 21 19 16 15 17 17 25 26 31 30 34 34 28 25 26 32 36 49 48 54
74 79 78 82 79 80 80 86 89 87 86 96 95 91 92 58 75 61 67 78 95 96 29 24 21 19 23 24 21 19 19 22 26 33 40 35 26 27 34 35 32 33 41 66 74 78 69
69 73 78 80 82 82 80 84 87 86 85 96 96 93 93 67 69 78 85 91 97 47 42 21 20 22 26 22 23 21 20 27 22 24 34 42 43 38 32 30 36 40 46 67 68 83 68
74 73 74 78 81 82 82 81 87 86 87 96 96 93 91 78 74 83 95 98 75 48 27 27 19 26 27 22 23 25 24 23 20 18 29 43 54 40 29 28 28 48 57 42 54 76 80
83 73 74 79 80 81 82 82 87 86 90 97 97 94 82 72 82 91 98 77 61 36 31 32 32 25 31 26 24 27 26 21 20 18 25 49 61 51 42 34 31 35 30 52 54 50 54
76 76 73 75 82 84 84 82 87 86 94 94 91 97 67 66 80 96 92 73 57 39 33 37 31 28 25 28 24 25 27 21 20 27 33 43 48 55 42 48 38 34 37 35 35 59 66
74 78 75 76 79 81 88 83 87 87 93 98 91 94 67 72 96 92 86 59 57 42 37 41 33 39 40 27 28 28 29 25 23 26 29 35 57 77 50 37 30 24 34 39 70 45 61
72 71 71 71 80 80 85 84 86 89 92 97 92 82 78 66 76 89 61 54 47 44 42 40 37 37 40 36 35 30 30 43 28 29 34 42 45 58 49 38 34 34 28 26 35 62 55
74 73 73 71 84 80 84 84 84 90 90 97 88 95 96 89 56 54 64 52 51 43 46 36 34 33 39 37 33 38 50 46 43 43 63 47 43 49 58 38 34 38 32 30 37 77 59
78 76 75 76 85 84 86 85 78 90 91 98 98 73 79 96 88 67 52 48 52 56 44 39 38 36 39 42 34 38 49 52 45 58 46 43 46 41 33 30 33 31 36 33 32 39 55
79 78 78 83 84 84 89 86 79 88 92 99 95 80 84 81 70 78 67 50 48 44 43 43 44 39 35 39 36 36 41 51 49 54 49 44 56 50 57 42 38 43 35 34 32 30 29
80 82 80 79 82 81 85 87 79 84 90 97 79 81 79 79 80 85 72 51 43 41 40 35 37 43 44 34 38 41 40 42 43 54 54 56 60 75 76 48 47 61 43 35 34 33 34
80 80 77 76 78 76 81 86 81 83 85 89 70 83 93 90 79 75 52 50 46 44 46 36 31 44 41 45 48 53 53 46 44 51 47 64 65 83 84 72 65 44 27 21 26 28 29
77 80 80 81 79 81 84 90 82 81 88 78 87 93 96 100 67 63 52 49 42 44 51 42 48 57 49 52 78 77 84 65 57 48 52 61 82 88 77 82 57 37 29 33 35 38 32
76 75 75 79 85 86 89 88 80 82 91 90 78 97 99 100 80 51 51 46 51 54 62 85 74 68 72 78 86 81 89 61 63 50 52 51 71 77 90 84 74 56 31 29 30 60 42
77 78 79 87 88 91 85 80 80 87 88 92 88 89 98 100 87 56 52 48 44 68 84 87 91 84 85 99 99 91 84 53 75 76 77 89 94 86 97 94 81 47 32 38 49 61 49
79 79 77 86 85 83 85 88 90 91 90 91 86 93 99 98 88 78 43 44 45 73 90 84 79 93 97 92 93 91 92 73 71 66 76 79 95 98 97 98 86 36 36 50 65 55 55
78 81 88 88 82 86 87 89 91 90 89 84 90 87 91 99 96 82 81 78 44 59 81 91 74 73 79 88 98 99 99 98 77 81 57 81 81 88 79 86 64 53 60 63 62 63 62

GFSGBSN_sfc_rhum_054.txt.gz
RH
75 77 82 86 88 86 85 95 93 93 92 91 90 90 89 89 89 89 89 91 92 92 91 90 89 91 82 61 54 32 74 75 40 25 25 24 30 32 26 19 19 21 18 32 50 56 56
76 78 80 84 86 87 85 87 96 94 93 92 91 90 90 90 89 89 89 90 92 93 92 90 89 91 86 61 26 43 37 42 26 23 22 24 25 22 22 23 24 23 46 50 55 53 59
76 77 78 80 85 87 89 87 90 96 94 92 92 91 90 90 89 89 88 89 92 92 92 89 87 77 79 40 29 27 24 26 26 19 19 18 21 27 24 28 26 27 31 42 49 52 44
78 78 78 80 84 90 90 89 87 93 96 94 92 92 92 90 90 89 88 90 92 92 91 90 87 84 70 38 42 33 30 24 21 18 17 18 24 27 30 30 27 24 29 39 50 44 39
77 78 78 79 81 86 91 90 88 90 96 95 93 92 92 91 90 90 90 91 91 92 90 88 92 84 70 41 34 30 27 22 19 21 23 16 24 32 28 36 33 27 30 28 36 32 38
77 79 78 79 79 81 88 91 89 90 94 96 94 93 92 90 89 90 92 90 86 90 79 65 59 66 49 27 24 21 19 19 22 29 28 27 33 39 40 31 37 34 29 26 28 41 42
75 72 80 78 79 80 82 88 90 88 93 96 95 94 92 90 87 90 94 83 68 76 72 56 42 44 26 23 20 20 17 21 22 30 45 39 42 44 35 36 33 26 28 29 24 26 42
75 78 78 80 78 79 79 85 89 88 91 91 96 94 91 88 86 90 95 82 57 53 65 52 46 43 31 32 32 21 18 22 24 34 40 35 44 35 28 33 38 36 35 31 28 23 34
77 70 76 76 79 78 78 82 88 88 90 93 93 96 91 87 89 94 92 72 49 51 72 56 47 47 42 39 34 24 20 22 25 35 35 39 35 33 33 36 38 39 44 37 33 30 25
76 81 72 78 82 79 79 79 85 89 87 95 92 95 91 89 84 83 86 63 65 61 84 57 49 38 36 26 24 18 19 19 29 34 39 41 39 33 39 37 35 41 35 34 35 32 30
74 74 77 74 80 83 79 80 83 87 87 89 96 95 92 81 88 83 67 65 64 70 57 35 37 26 27 22 24 23 18 21 24 36 33 34 41 38 37 32 30 40 40 40 35 41 41
78 74 78 76 72 78 81 80 83 88 89 89 96 96 93 94 98 84 70 69 76 86 80 44 30 28 22 23 26 20 20 21 23 33 35 34 35 32 32 34 34 31 36 46 51 52 56
84 81 72 76 74 74 79 79 80 88 89 85 95 96 89 71 73 78 81 79 92 88 42 37 27 24 28 29 28 24 24 22 26 36 42 38 33 33 34 33 33 36 46 62 67 76 65
73 83 78 73 78 76 75 80 79 85 89 86 94 97 92 71 80 80 86 93 88 60 56 34 24 26 29 27 26 25 25 27 28 28 43 46 45 36 35 36 43 46 44 65 56 81 65
72 78 77 76 76 80 79 80 80 82 89 86 96 99 92 85 82 77 98 94 78 65 35 32 26 32 33 28 27 30 30 28 23 25 33 48 50 49 41 36 33 46 53 43 58 80 86
72 78 87 76 72 73 81 82 80 81 88 88 95 97 93 78 70 79 99 77 70 50 41 39 40 32 37 31 32 32 31 25 22 23 26 42 53 48 47 39 38 32 35 55 64 50 55
74 80 81 85 72 73 75 79 81 81 87 94 96 99 78 71 76 91 87 76 58 42 45 52 50 41 32 34 30 35 30 25 24 24 33 45 47 47 50 47 38 38 39 41 44 60 62
74 81 82 86 77 75 75 76 78 82 87 97 93 94 76 75 84 93 77 64 58 51 47 51 52 50 35 35 33 34 30 26 29 35 37 42 60 68 42 38 41 47 43 44 67 44 66
76 79 77 77 87 77 77 84 80 84 87 91 95 87 84 67 84 87 71 62 57 47 47 50 51 42 39 38 38 36 32 43 39 31 39 40 52 71 55 44 41 49 35 35 54 64 57
76 77 78 78 80 79 75 77 85 85 84 92 94 94 99 83 64 59 67 71 75 48 48 47 50 50 47 46 37 41 49 48 54 43 60 48 50 51 62 44 38 44 36 34 42 75 59
77 77 75 79 80 77 76 73 87 86 85 93 98 79 79 93 87 62 59 59 63 60 44 46 49 48 54 50 43 43 57 54 51 53 48 44 46 44 40 37 38 41 39 39 40 46 54
77 76 75 75 73 71 72 74 77 87 87 96 92 92 86 89 70 75 60 59 56 49 44 39 50 51 52 49 39 40 49 55 50 53 44 48 48 50 51 49 43 46 39 39 38 35 37
77 76 75 74 73 73 74 77 80 86 88 94 90 90 82 73 78 84 76 54 49 41 44 35 44 49 52 48 41 36 44 46 42 50 55 56 64 73 68 54 54 67 46 39 36 38 36
76 76 75 75 75 76 73 73 81 85 87 86 77 85 89 93 81 76 66 62 50 44 46 40 35 53 46 51 54 52 53 56 57 67 54 68 72 82 84 73 74 50 37 36 40 39 40
78 78 79 79 78 76 78 87 83 89 86 70 83 95 98 95 78 76 71 62 58 45 52 44 44 50 50 59 74 67 82 72 67 57 62 64 81 87 77 82 60 44 31 29 38 48 44
79 79 80 80 80 84 84 86 84 86 93 73 75 96 100 97 87 60 76 61 62 60 53 66 75 79 75 86 90 77 80 65 71 60 65 63 77 81 93 78 73 55 38 31 36 62 48
80 81 82 82 82 85 83 84 86 84 89 80 83 91 98 100 92 70 70 66 51 56 76 84 79 83 86 100 99 87 83 59 74 71 70 88 97 86 97 85 70 50 39 38 43 50 54
79 80 81 80 80 81 85 87 84 86 88 78 85 96 96 99 95 89 91 61 50 48 66 86 80 89 97 97 97 97 92 78 77 66 69 68 88 95 96 93 71 52 45 46 56 65 64
78 78 80 82 83 86 86 88 89 85 84 78 92 90 95 99 96 86 84 81 85 61 62 90 66 83 92 94 99 100 98 95 82 91 69 75 66 80 77 80 65 68 63 67 65 67 72

GFSGBSN_sfc_rhum_057.txt.gz
RH
76 76 78 81 84 87 85 87 89 96 94 93 91 90 90 89 90 90 90 89 89 90 91 89 88 90 82 57 42 30 69 67 59 34 27 24 31 32 34 25 22 23 30 33 57 58 63
76 78 79 80 82 80 79 85 89 94 97 95 93 92 91 90 90 90 90 89 89 91 92 89 88 91 86 47 24 43 33 35 30 31 27 26 25 26 28 27 30 49 56 59 60 59 66
73 79 79 80 81 83 82 88 90 88 95 96 94 93 92 91 90 90 90 89 90 91 91 88 87 82 85 34 33 35 37 27 30 24 21 23 26 28 32 28 31 37 51 50 53 58 61
78 74 80 80 81 83 87 90 91 89 88 96 96 94 94 93 91 90 89 89 90 91 92 90 85 88 64 36 49 45 38 29 26 26 20 22 23 29 33 29 30 31 41 58 48 53 46
77 78 72 75 81 82 84 88 90 91 89 90 96 96 94 94 93 92 90 90 90 91 91 87 92 86 68 43 38 31 29 25 23 24 26 17 28 34 32 42 36 35 36 46 38 44 43
77 78 75 77 73 81 82 85 89 92 91 91 95 96 95 94 93 91 92 90 88 88 87 74 64 62 37 28 29 24 30 23 24 29 29 30 38 42 42 37 43 42 35 32 32 37 42
74 77 77 74 76 80 81 82 84 92 91 91 94 96 96 94 91 90 93 81 65 77 77 58 42 33 29 27 30 24 22 22 26 31 42 42 43 46 38 33 38 40 37 36 30 24 36
78 74 79 76 76 80 80 80 82 90 90 88 91 96 96 93 88 90 94 83 54 59 67 53 51 44 37 37 45 34 22 22 28 33 42 39 44 36 34 40 37 43 48 42 32 29 40
79 82 74 76 76 77 81 80 81 88 89 88 91 92 97 94 88 92 89 72 54 58 70 54 53 52 46 43 48 45 23 25 27 32 37 41 36 38 37 42 38 41 45 46 41 34 40
71 77 82 74 73 77 80 81 80 83 87 89 91 92 97 90 87 78 91 71 66 69 72 50 61 51 43 39 31 27 21 22 33 29 38 42 39 35 43 37 36 43 38 42 44 35 34
72 71 80 79 77 78 78 84 80 82 87 88 88 95 96 88 77 82 73 68 70 70 53 27 49 33 39 24 24 25 21 23 33 38 37 37 42 41 38 33 34 38 43 42 45 44 46
71 71 72 78 76 77 77 75 84 80 84 87 88 92 97 95 95 82 74 75 80 84 61 41 38 41 33 27 26 25 23 22 25 34 41 33 37 36 33 34 37 38 43 46 54 53 57
73 72 72 74 88 73 72 75 82 81 82 90 88 93 97 76 76 81 82 80 93 94 36 43 38 32 35 30 28 29 24 28 34 41 45 43 35 36 40 39 37 39 46 59 63 72 62
75 73 73 73 83 80 79 75 78 85 80 86 90 91 95 76 85 76 83 94 96 63 63 45 30 32 31 31 30 31 28 30 28 32 45 45 44 35 36 37 41 52 43 63 52 74 65
78 75 73 73 76 84 76 77 77 84 82 85 91 98 94 90 81 75 95 91 80 63 47 34 31 34 36 32 31 32 32 31 26 28 32 52 45 47 47 40 36 49 55 45 65 80 87
79 77 74 73 74 84 81 77 75 78 84 85 97 98 83 83 80 77 99 80 68 56 50 53 36 35 40 36 34 34 35 29 26 26 28 38 44 48 46 44 42 39 41 55 67 56 59
80 79 75 74 75 77 83 78 78 77 84 84 97 98 76 79 89 89 91 80 63 46 48 62 60 49 37 37 36 40 33 29 27 28 31 45 41 47 48 46 40 45 46 46 51 60 63
82 80 77 75 74 79 77 78 77 79 82 84 96 96 90 80 99 89 82 68 58 44 46 57 59 59 47 38 39 38 36 29 28 38 34 43 51 56 39 43 44 40 41 46 68 50 70
84 80 78 76 75 76 82 77 75 80 83 90 91 88 90 79 96 92 71 65 59 50 53 52 60 58 54 43 39 40 40 34 37 38 44 47 57 64 46 44 51 51 46 48 57 66 66
87 84 79 77 76 76 88 76 71 75 82 85 91 95 98 95 69 71 75 76 70 56 56 55 56 58 59 52 41 41 40 52 53 40 67 48 55 50 55 43 41 47 43 41 49 76 59
89 85 81 77 78 80 79 83 75 74 82 85 93 72 79 90 91 78 64 67 72 66 58 52 56 56 60 64 48 45 58 53 52 60 53 46 51 47 46 41 38 38 37 43 46 49 54
89 86 81 78 79 81 80 78 77 83 90 94 90 87 89 90 70 78 67 65 69 64 55 57 51 52 49 56 48 47 53 55 50 52 50 50 52 49 65 55 47 48 40 41 43 41 47
89 86 81 78 81 83 81 78 78 76 91 97 64 84 87 82 74 75 75 63 61 55 54 45 45 44 48 54 52 47 43 47 44 50 54 54 66 69 58 59 58 66 52 42 40 39 39
88 86 81 78 79 80 78 74 75 76 86 98 57 88 94 84 79 68 64 56 59 55 56 46 42 52 49 51 51 55 62 63 57 62 56 64 69 77 78 74 72 45 46 40 43 46 44
88 86 82 79 79 80 77 74 76 76 81 98 81 90 97 96 75 70 69 65 57 52 54 48 46 36 56 66 67 69 82 73 67 68 70 65 80 86 77 80 60 50 39 40 39 44 49
88 85 81 78 79 78 74 72 74 75 75 95 87 89 96 96 80 65 70 67 71 65 60 57 63 75 70 83 86 76 82 74 77 65 64 68 80 80 89 79 80 61 46 33 39 59 46
88 84 81 78 77 76 74 75 77 79 81 93 90 96 96 99 90 80 78 76 62 64 72 67 87 87 79 98 95 88 76 63 79 75 78 92 96 87 97 87 75 52 41 36 46 51 54
86 82 78 77 77 77 78 78 79 79 81 93 88 97 97 99 95 95 88 72 70 62 80 82 82 90 95 98 94 94 90 80 77 66 71 76 92 93 94 84 73 49 49 42 50 72 65
81 80 80 80 80 80 78 80 84 86 88 89 94 97 96 99 97 94 90 83 85 76 59 88 77 87 86 95 98 98 96 95 84 86 68 65 69 80 73 75 63 69 50 67 67 68 74

GFSGBSN_sfc_rhum_060.txt.gz
RH
76 77 77 76 79 79 78 82 87 91 92 97 95 93 91 90 90 90 90 90 90 88 88 88 88 89 84 48 32 27 66 76 55 35 30 28 31 32 34 31 30 26 42 52 63 66 63
76 78 80 78 79 75 73 79 85 91 90 93 97 95 93 91 91 91 90 90 90 89 89 88 87 90 85 41 22 42 32 35 35 31 33 28 30 28 31 32 36 59 59 67 64 70 70
74 77 80 80 81 81 79 83 85 87 90 89 93 97 94 92 92 92 91 91 90 90 89 88 86 86 86 37 35 40 43 35 31 26 24 26 28 30 35 35 40 48 55 50 60 75 62
77 78 75 79 78 80 75 83 86 88 89 90 88 95 97 95 94 93 92 91 90 89 90 91 85 89 63 34 49 47 47 37 31 30 23 23 26 32 36 36 30 46 42 55 54 56 57
78 78 78 76 78 79 81 73 82 86 86 90 90 90 96 97 95 94 93 90 90 90 91 88 91 84 60 41 37 29 34 28 25 28 29 18 30 37 34 43 39 37 44 50 36 48 53
74 79 74 77 78 78 80 83 82 84 88 90 91 91 95 97 96 95 92 89 87 88 87 79 68 73 39 29 31 30 36 28 25 31 35 34 42 43 45 39 47 45 39 33 37 36 53
68 71 82 73 75 78 75 80 82 84 88 90 91 91 94 97 97 92 91 77 57 76 80 58 54 44 27 32 37 29 26 24 29 31 43 44 44 49 43 37 33 40 38 41 36 30 38
70 70 69 76 75 73 76 75 81 83 86 91 91 89 91 97 96 90 90 79 56 65 76 56 56 52 39 41 46 36 24 25 30 32 44 42 49 41 37 44 40 44 44 43 38 35 35
73 71 71 68 77 76 74 75 76 84 83 88 89 88 91 96 93 90 89 66 57 68 80 52 54 53 47 44 48 43 25 26 29 36 42 44 37 39 38 44 42 43 43 48 43 42 43
74 74 72 72 70 75 75 73 76 79 83 85 86 88 92 97 92 80 83 71 70 75 67 46 59 54 51 48 43 38 24 23 34 29 38 42 39 38 44 41 40 45 38 41 45 44 42
76 75 74 73 72 73 87 70 75 77 83 82 86 87 92 96 78 86 75 66 72 66 51 30 58 40 48 33 26 27 24 25 31 35 40 35 44 45 45 40 37 41 43 44 46 50 49
78 77 75 74 73 72 79 82 73 78 85 82 88 87 89 99 95 80 75 76 82 71 69 37 45 49 43 31 28 28 27 25 29 40 47 35 42 39 36 37 36 41 48 47 54 54 59
81 79 77 76 73 72 76 84 79 79 81 85 84 88 94 81 87 81 76 82 98 92 38 43 48 42 41 34 29 29 31 33 38 42 50 45 41 39 39 43 42 44 47 60 61 71 60
82 81 80 77 76 73 74 80 82 76 77 86 82 92 92 83 73 72 82 96 97 64 61 46 36 43 40 31 29 32 30 36 33 36 49 48 44 37 37 38 42 54 43 63 50 69 61
82 82 82 80 78 74 74 76 84 73 76 86 84 98 98 86 86 72 92 98 79 64 50 42 34 37 37 34 30 35 36 35 29 32 35 51 41 49 50 43 38 54 52 46 66 82 86
82 81 82 82 79 76 74 75 82 78 80 84 96 98 86 77 88 95 98 82 68 55 53 55 44 37 40 39 38 36 38 32 28 30 31 38 42 49 50 47 47 44 43 54 65 60 61
82 81 82 83 79 77 75 75 79 80 78 82 97 96 80 75 95 99 93 80 64 52 53 64 68 54 39 41 39 43 39 34 29 32 31 44 38 46 53 48 45 50 53 52 53 62 61
83 82 81 84 80 78 75 75 78 80 73 85 95 93 82 87 98 92 87 71 61 54 53 55 63 64 51 42 44 42 39 31 31 36 34 44 48 52 43 48 40 43 48 49 69 54 72
84 84 82 85 82 79 76 75 80 81 74 90 96 78 91 79 94 92 73 66 66 56 57 54 63 61 62 49 42 43 42 35 36 34 41 46 52 54 43 44 55 57 51 52 60 69 67
84 85 84 85 85 80 77 76 78 82 76 91 96 95 96 93 61 66 76 75 72 63 58 59 61 61 61 60 47 45 43 48 48 38 63 49 58 47 46 40 46 61 50 52 53 77 62
78 88 86 86 86 81 78 78 78 77 79 94 98 80 84 92 85 75 66 64 72 70 60 62 65 63 63 68 57 48 56 59 53 66 55 46 49 52 46 43 39 40 40 49 48 50 54
77 85 90 87 87 82 78 78 78 76 81 98 98 88 89 85 70 75 78 66 66 67 70 68 67 55 60 62 51 50 57 59 53 56 54 53 52 52 64 57 52 58 43 48 47 48 49
81 80 88 90 88 84 78 78 80 78 79 98 96 89 92 75 76 76 75 64 66 60 60 56 53 52 59 52 44 54 52 50 52 59 59 55 65 66 60 61 58 66 55 46 44 45 44
82 77 83 91 88 85 80 77 77 76 77 95 94 93 96 91 82 67 63 59 63 62 68 55 57 60 48 45 55 58 62 64 59 68 59 66 65 75 78 75 71 48 51 45 48 45 44
84 80 84 92 88 86 81 79 83 76 76 93 91 97 97 96 75 68 66 60 55 59 63 58 53 43 50 54 69 71 84 73 74 77 76 65 77 81 76 78 57 48 45 46 46 41 47
81 80 89 90 87 85 80 78 78 80 80 88 92 95 98 96 85 61 66 65 64 70 71 64 54 62 67 81 81 81 86 76 79 74 68 68 74 75 87 77 73 56 49 37 36 52 48
80 85 91 88 86 83 80 79 76 79 81 88 94 90 99 98 87 69 71 69 60 70 83 70 72 83 70 94 94 91 81 70 85 82 85 91 93 80 96 86 77 58 44 38 49 54 55
90 90 89 88 86 81 81 80 78 79 82 88 92 95 96 96 93 96 81 76 67 64 84 81 82 90 96 90 94 93 92 82 83 75 80 79 88 92 91 86 74 49 48 45 50 72 65
90 89 88 87 84 81 78 75 78 79 81 76 93 90 93 97 97 94 92 87 57 55 62 88 72 87 86 93 97 97 96 96 80 84 70 78 71 79 71 74 63 60 52 58 61 65 69

GFSGBSN_sfc_rhum_066.txt.gz
RH
76 77 72 71 72 74 70 74 79 81 84 85 86 88 89 90 94 95 93 92 92 91 90 88 86 89 49 25 17 26 76 75 34 22 16 14 14 16 16 16 18 19 20 28 27 31 32
69 72 82 79 74 71 68 75 77 79 80 84 88 89 91 90 90 96 95 94 93 93 92 89 85 91 42 26 13 22 24 25 19 18 15 14 16 17 18 18 20 27 29 28 28 30 30
66 69 71 77 84 78 74 73 76 77 76 81 85 88 90 90 90 92 96 96 94 94 92 88 85 55 46 27 14 20 25 20 18 16 14 14 15 18 19 20 25 27 28 30 30 29 26
62 62 64 71 77 84 79 77 75 75 76 76 80 85 88 90 91 91 95 97 96 94 91 90 87 54 32 20 17 21 17 22 18 17 18 15 16 19 21 20 20 22 21 19 23 28 29
66 65 64 67 71 75 84 80 77 75 74 77 76 80 87 90 92 93 97 97 95 90 87 86 63 52 27 30 23 14 13 15 17 21 20 16 18 21 22 21 19 18 18 20 20 22 23
67 68 67 70 70 72 74 84 78 77 75 77 79 76 84 90 91 93 97 96 83 81 72 58 49 50 29 17 18 20 18 13 18 21 22 21 20 22 20 19 20 20 20 20 21 21 25
71 71 71 71 71 70 70 75 85 80 77 76 78 79 81 88 91 94 86 52 48 52 62 36 32 28 22 20 26 21 21 21 16 20 23 23 23 24 16 18 18 17 19 20 18 18 22
71 74 74 72 73 69 66 69 74 83 78 76 75 80 79 85 90 95 83 56 53 56 52 35 39 36 29 28 30 25 19 18 21 22 22 26 27 20 20 20 22 21 22 22 19 19 22
76 76 75 75 74 73 68 69 71 76 84 77 76 80 79 85 92 91 80 59 48 47 50 40 36 29 26 30 26 21 20 16 19 21 22 23 22 22 23 24 25 23 24 24 22 20 21
76 76 76 76 79 77 75 74 72 72 82 80 78 79 82 85 90 65 72 53 50 56 59 31 35 31 28 24 30 15 18 16 19 20 18 21 18 23 25 23 22 25 21 22 23 26 23
77 77 77 77 76 79 78 77 76 74 75 83 80 79 83 85 84 68 56 60 63 62 42 20 37 25 27 20 16 20 16 18 19 20 22 23 23 25 25 23 22 23 26 26 26 28 26
78 78 78 79 79 78 80 78 79 77 75 80 81 79 83 71 76 65 58 66 68 66 54 23 39 41 38 27 21 19 20 17 15 18 21 17 22 22 21 24 23 26 29 29 29 28 32
80 81 80 80 80 80 80 81 80 79 77 79 83 80 80 51 62 56 65 72 75 65 23 22 42 41 31 26 24 21 22 25 23 29 28 21 20 21 23 24 26 26 30 35 44 38 34
83 82 81 80 80 81 80 81 83 80 77 78 84 83 79 67 51 68 80 97 79 26 29 30 37 41 33 21 20 24 21 24 19 18 20 25 29 21 21 22 23 26 26 35 36 36 28
83 83 83 83 83 83 82 82 83 82 78 79 83 89 88 82 64 84 97 95 54 34 31 29 35 46 38 23 19 24 23 21 20 20 24 26 21 19 23 22 20 32 32 25 37 49 44
82 82 83 83 83 83 83 83 84 84 79 80 84 91 79 76 74 96 97 71 43 28 32 40 34 37 46 27 26 24 25 20 20 19 17 23 27 21 28 26 28 27 23 35 34 43 38
83 83 82 82 84 84 83 84 84 84 79 81 88 98 62 74 82 99 90 64 40 33 37 44 38 48 34 33 23 26 24 22 18 21 18 18 22 34 32 31 25 32 31 29 27 32 38
84 84 84 83 84 84 83 84 84 86 80 87 80 99 64 67 98 93 81 51 46 33 40 44 46 48 50 32 29 23 23 20 21 19 26 21 24 30 25 24 25 23 25 27 36 35 38
84 86 84 83 82 83 84 83 84 86 82 84 93 96 80 66 91 92 60 53 40 42 36 45 47 44 47 47 36 28 25 23 20 21 24 24 28 34 29 28 31 28 25 24 28 36 34
88 87 84 84 84 84 87 85 85 88 83 72 96 99 99 96 50 58 60 53 51 39 39 37 42 41 47 46 42 35 31 34 28 22 52 34 24 28 33 22 18 26 25 25 26 39 31
84 91 88 85 85 88 88 88 88 90 86 83 99 95 71 96 90 51 50 45 46 48 39 40 45 46 46 48 47 40 33 43 34 56 30 28 28 25 20 16 15 18 17 19 25 24 28
81 82 84 91 90 82 83 90 89 90 88 95 98 83 56 66 66 60 49 51 44 38 40 45 47 40 43 52 47 49 40 39 34 42 34 28 30 28 31 22 22 23 20 19 23 21 22
81 83 83 83 82 82 83 90 90 91 89 96 80 52 48 57 68 63 51 42 42 36 37 35 40 43 51 44 42 42 41 38 36 37 41 38 33 39 36 32 33 56 36 23 24 26 26
82 81 81 84 82 82 80 84 91 90 85 84 74 58 74 61 58 64 49 36 39 35 43 37 39 45 38 43 42 37 38 37 34 32 33 46 40 42 48 69 81 26 27 22 24 22 20
84 82 82 82 84 83 81 84 92 89 84 69 67 59 61 87 45 45 53 43 37 37 40 39 44 38 42 44 53 61 60 54 43 41 45 41 45 58 78 48 30 28 31 30 31 26 20
83 81 85 84 84 84 83 86 92 86 85 66 68 57 73 71 58 37 53 47 45 44 52 43 37 47 50 61 63 62 81 53 53 58 51 47 50 55 61 57 82 37 23 23 24 34 18
86 85 83 86 85 84 84 91 91 85 85 68 78 74 69 74 47 42 60 60 39 40 55 48 56 56 48 76 88 71 70 49 60 70 88 70 69 77 62 74 43 29 29 25 40 38 20
90 85 84 86 85 84 91 92 88 86 84 68 82 75 74 76 55 45 48 57 44 44 61 46 50 60 68 77 72 70 84 61 56 48 62 62 70 84 68 91 78 35 31 34 28 33 26
88 87 88 85 83 81 84 90 87 86 84 67 91 85 66 78 78 74 80 57 39 34 40 56 41 49 53 60 69 61 97 92 56 64 41 64 52 51 49 43 48 34 27 27 30 26 33

GFSGBSN_sfc_rhum_072.txt.gz
RH
65 65 66 68 70 72 78 76 76 75 75 75 73 76 77 77 77 82 88 90 90 91 94 94 93 92 60 32 22 28 72 67 26 16 17 16 13 12 12 11 10 12 12 12 11 12 13
64 64 65 65 66 67 69 74 81 80 76 75 74 69 74 80 82 83 84 89 91 91 93 94 93 94 54 50 14 10 15 28 19 19 18 14 11 10 13 14 14 12 16 14 22 23 20
65 67 70 71 71 67 68 75 77 81 82 78 75 74 76 74 80 83 83 89 91 92 94 94 92 64 55 42 18 12 12 15 18 16 16 11 10 13 14 17 13 13 16 17 35 26 22
70 73 70 73 74 75 75 75 76 75 80 82 76 74 74 76 77 83 84 88 90 90 94 95 88 61 47 18 14 14 13 13 14 12 12 11 11 14 17 15 15 16 15 21 28 31 27
66 67 70 77 77 76 77 75 76 72 76 83 81 78 73 75 79 83 84 88 89 89 91 90 69 58 38 23 21 14 11 13 16 15 13 11 15 19 17 20 21 15 20 18 24 26 21
66 66 67 72 75 79 78 77 77 78 78 82 83 80 77 75 78 83 86 87 73 81 72 52 44 40 28 15 12 13 11 10 16 18 17 18 19 21 20 21 28 24 19 20 17 18 18
65 66 66 67 71 72 72 77 76 78 79 81 83 83 80 77 77 82 73 52 40 67 61 41 29 28 14 14 11 13 10 11 14 18 25 21 24 25 20 19 17 16 16 16 22 17 17
66 67 67 67 67 67 67 70 76 78 79 78 80 83 83 79 80 83 71 63 29 42 50 26 30 29 21 17 23 16 10 14 18 22 21 23 27 18 16 15 14 14 17 17 16 15 16
72 71 68 67 67 68 68 69 73 78 79 80 80 83 83 80 81 71 58 52 33 34 53 27 18 16 16 17 24 19 12 12 16 21 20 26 20 17 17 18 18 17 20 20 21 16 17
73 74 74 69 68 70 73 74 75 77 80 81 80 83 83 80 76 52 46 34 34 44 61 18 14 16 13 14 19 16 14 15 16 18 18 20 16 17 18 20 17 23 16 17 17 20 28
74 75 76 76 76 78 78 78 78 78 80 80 81 82 84 83 58 57 54 59 52 56 42 9 11 13 13 16 12 14 14 15 20 16 17 21 18 18 21 19 16 20 16 20 20 23 23
74 75 76 76 76 78 79 80 80 80 80 81 82 82 83 66 62 51 49 57 77 67 37 14 20 23 21 17 15 10 14 15 14 16 15 16 12 13 15 16 16 15 19 21 22 26 37
76 76 76 76 77 78 79 81 82 82 82 82 83 82 78 45 55 44 74 79 78 55 14 12 21 23 23 23 20 16 16 21 23 25 26 17 16 12 14 18 16 19 26 40 50 47 45
77 77 77 78 79 80 80 81 81 82 84 84 85 84 71 46 44 53 88 99 80 25 25 13 11 23 28 23 23 20 17 19 20 17 20 24 26 15 15 18 21 22 25 46 79 61 41
76 78 80 80 81 81 81 82 82 83 83 85 85 87 75 56 54 62 97 98 64 30 14 17 17 24 31 25 22 25 22 20 19 18 24 25 22 13 15 16 17 24 28 21 37 41 55
79 80 81 82 82 83 83 83 83 83 84 85 97 94 83 59 61 82 97 80 49 33 20 18 20 22 32 30 26 24 23 19 19 16 17 21 28 15 14 15 16 19 18 32 31 53 50
80 81 82 84 84 84 84 84 84 84 85 85 98 99 76 61 72 96 97 72 49 29 30 26 19 20 17 25 27 24 23 21 18 18 18 19 24 22 14 18 20 21 24 29 24 30 48
81 83 83 83 83 84 85 85 84 85 85 91 97 100 72 59 98 91 90 60 45 28 25 31 32 28 21 20 32 26 27 23 25 18 21 19 25 31 20 15 15 18 23 26 41 35 37
82 82 83 83 83 84 85 85 85 85 87 97 98 98 77 63 94 90 65 58 42 37 28 28 31 30 27 34 32 29 29 30 26 27 23 22 27 36 29 20 20 23 19 21 25 29 38
82 83 83 84 84 85 86 85 85 85 87 97 99 100 97 93 57 59 66 57 52 40 33 26 30 29 52 36 35 38 31 31 32 32 66 46 27 29 38 30 25 26 19 19 26 48 40
84 84 85 86 86 85 85 86 85 85 87 98 99 91 71 96 94 63 54 44 46 45 34 31 32 33 44 70 32 36 35 32 28 39 38 43 38 27 22 18 18 20 22 21 22 23 34
85 86 85 84 84 86 86 85 86 86 88 99 100 70 54 51 63 79 67 56 44 34 31 35 38 32 38 68 66 47 31 38 41 40 39 34 45 31 33 20 20 21 19 19 18 18 17
85 85 85 86 89 88 86 86 88 87 89 98 94 54 56 63 73 78 69 55 46 33 29 24 29 32 45 61 62 73 48 39 37 44 49 42 43 40 47 27 23 38 25 18 16 16 17
84 84 84 83 82 82 88 89 90 88 90 95 86 62 74 81 55 73 53 50 43 35 38 25 25 29 30 37 59 72 68 47 43 40 42 50 47 44 60 66 58 28 18 17 20 17 16
82 82 81 82 82 81 83 84 87 91 89 95 80 66 65 91 48 48 51 46 44 41 38 30 24 22 22 33 64 73 82 65 49 40 43 41 55 82 67 58 36 25 22 23 26 26 19
84 84 83 82 82 82 81 82 83 86 90 94 94 61 63 68 58 38 49 45 49 45 44 38 28 25 35 46 66 90 82 65 53 39 36 38 46 74 76 63 67 39 22 24 24 39 20
89 87 86 84 83 84 81 83 84 85 88 94 95 73 70 68 47 44 56 50 40 41 44 39 38 45 45 65 92 98 77 31 58 71 69 70 74 73 77 78 53 26 23 28 46 47 29
88 86 88 89 86 85 82 83 84 85 85 97 94 77 74 76 50 46 45 58 48 42 48 38 42 49 66 68 75 71 74 47 40 53 68 71 72 86 73 80 71 27 31 34 37 43 31
89 86 89 89 90 89 82 82 85 85 84 93 98 78 68 78 74 65 57 46 52 42 35 41 39 47 63 61 62 59 84 76 47 60 52 87 82 68 54 61 48 42 39 42 40 39 40